Wetterdaten: Freitag, 16.07.2021
Datum Zeit Temp. Aussen Temp. o. S. Temp +5cm Feuchte Auss Luftdruck Regen Sonnenschein Regendauer Solar Windben Empfang
16.07.2021 00:00 18,1 C 17,2 C 21,7 C 97 % 1018,3 hPa 0,0 l/m 0 min 0 min 0 W/m 3,2 km/h (1 Bft) 100,00 %
16.07.2021 00:02 18,1 C 17,2 C 21,7 C 97 % 1018,3 hPa 0,0 l/m 0 min 0 min 0 W/m 3,2 km/h (1 Bft) 97,67 %
16.07.2021 00:04 18,1 C 17,2 C 21,7 C 97 % 1018,3 hPa 0,0 l/m 0 min 0 min 0 W/m 9,7 km/h (2 Bft) 100,00 %
16.07.2021 00:08 18,0 C 17,2 C 21,7 C 97 % 1018,4 hPa 0,0 l/m 0 min 0 min 0 W/m 12,9 km/h (3 Bft) 100,00 %
16.07.2021 00:10 18,0 C 17,2 C 21,7 C 97 % 1018,4 hPa 0,0 l/m 0 min 0 min 0 W/m 9,7 km/h (2 Bft) 100,00 %
16.07.2021 00:12 18,0 C 17,2 C 21,7 C 97 % 1018,4 hPa 0,0 l/m 0 min 0 min 0 W/m 9,7 km/h (2 Bft) 100,00 %
16.07.2021 00:14 18,0 C 17,2 C 21,7 C 97 % 1018,4 hPa 0,0 l/m 0 min 0 min 0 W/m 6,4 km/h (2 Bft) 100,00 %
16.07.2021 00:16 18,0 C 17,2 C 21,7 C 97 % 1018,5 hPa 0,0 l/m 0 min 0 min 0 W/m 12,9 km/h (3 Bft) 97,83 %
16.07.2021 00:18 18,0 C 17,2 C 21,7 C 97 % 1018,4 hPa 0,0 l/m 0 min 0 min 0 W/m 19,3 km/h (3 Bft) 100,00 %
16.07.2021 00:20 18,0 C 17,2 C 21,7 C 96 % 1018,5 hPa 0,0 l/m 0 min 0 min 0 W/m 9,7 km/h (2 Bft) 100,00 %
16.07.2021 00:22 18,0 C 17,2 C 21,7 C 97 % 1018,5 hPa 0,0 l/m 0 min 0 min 0 W/m 12,9 km/h (3 Bft) 97,87 %
16.07.2021 00:24 18,0 C 17,2 C 21,7 C 96 % 1018,6 hPa 0,0 l/m 0 min 0 min 0 W/m 12,9 km/h (3 Bft) 100,00 %
16.07.2021 00:26 18,0 C 17,2 C 21,7 C 96 % 1018,6 hPa 0,0 l/m 0 min 0 min 0 W/m 16,1 km/h (3 Bft) 100,00 %
16.07.2021 00:28 18,0 C 17,2 C 21,7 C 96 % 1018,5 hPa 0,0 l/m 0 min 0 min 0 W/m 9,7 km/h (2 Bft) 100,00 %
16.07.2021 00:30 18,0 C 17,2 C 21,7 C 96 % 1018,6 hPa 0,0 l/m 0 min 0 min 0 W/m 19,3 km/h (3 Bft) 100,00 %
16.07.2021 00:32 18,0 C 17,2 C 21,7 C 96 % 1018,6 hPa 0,0 l/m 0 min 0 min 0 W/m 16,1 km/h (3 Bft) 100,00 %
16.07.2021 00:34 18,0 C 17,2 C 21,7 C 96 % 1018,6 hPa 0,0 l/m 0 min 0 min 0 W/m 19,3 km/h (3 Bft) 100,00 %
16.07.2021 00:36 17,9 C 17,2 C 21,7 C 96 % 1018,5 hPa 0,0 l/m 0 min 0 min 0 W/m 16,1 km/h (3 Bft) 100,00 %
16.07.2021 00:38 17,9 C 17,2 C 21,7 C 96 % 1018,5 hPa 0,0 l/m 0 min 0 min 0 W/m 12,9 km/h (3 Bft) 97,87 %
16.07.2021 00:40 17,9 C 17,2 C 21,7 C 96 % 1018,5 hPa 0,0 l/m 0 min 0 min 0 W/m 12,9 km/h (3 Bft) 100,00 %
16.07.2021 00:42 17,9 C 17,2 C 21,7 C 96 % 1018,6 hPa 0,0 l/m 0 min 0 min 0 W/m 16,1 km/h (3 Bft) 97,83 %
16.07.2021 00:44 17,9 C 17,2 C 21,7 C 96 % 1018,6 hPa 0,0 l/m 0 min 0 min 0 W/m 9,7 km/h (2 Bft) 100,00 %
16.07.2021 00:46 17,9 C 17,2 C 21,7 C 96 % 1018,6 hPa 0,0 l/m 0 min 0 min 0 W/m 22,5 km/h (4 Bft) 100,00 %
16.07.2021 00:48 17,9 C 17,2 C 21,7 C 96 % 1018,6 hPa 0,0 l/m 0 min 0 min 0 W/m 16,1 km/h (3 Bft) 100,00 %
16.07.2021 00:50 17,9 C 17,2 C 21,7 C 96 % 1018,6 hPa 0,0 l/m 0 min 0 min 0 W/m 19,3 km/h (3 Bft) 100,00 %
16.07.2021 00:52 17,8 C 17,2 C 21,7 C 96 % 1018,6 hPa 0,0 l/m 0 min 0 min 0 W/m 9,7 km/h (2 Bft) 100,00 %
16.07.2021 00:54 17,8 C 17,2 C 21,7 C 96 % 1018,6 hPa 0,0 l/m 0 min 0 min 0 W/m 19,3 km/h (3 Bft) 97,87 %
16.07.2021 00:56 17,8 C 17,2 C 21,7 C 96 % 1018,6 hPa 0,0 l/m 0 min 0 min 0 W/m 22,5 km/h (4 Bft) 100,00 %
16.07.2021 00:58 17,8 C 17,2 C 21,7 C 96 % 1018,6 hPa 0,0 l/m 0 min 0 min 0 W/m 16,1 km/h (3 Bft) 100,00 %
16.07.2021 01:00 17,8 C 17,2 C 21,7 C 96 % 1018,7 hPa 0,0 l/m 0 min 0 min 0 W/m 9,7 km/h (2 Bft) 100,00 %
16.07.2021 01:02 17,8 C 17,2 C 21,7 C 96 % 1018,7 hPa 0,0 l/m 0 min 0 min 0 W/m 12,9 km/h (3 Bft) 100,00 %
16.07.2021 01:04 17,7 C 17,2 C 21,7 C 96 % 1018,7 hPa 0,0 l/m 0 min 0 min 0 W/m 12,9 km/h (3 Bft) 100,00 %
16.07.2021 01:06 17,7 C 17,2 C 21,7 C 96 % 1018,7 hPa 0,0 l/m 0 min 0 min 0 W/m 19,3 km/h (3 Bft) 97,87 %
16.07.2021 01:08 17,7 C 17,2 C 21,1 C 96 % 1018,7 hPa 0,0 l/m 0 min 0 min 0 W/m 22,5 km/h (4 Bft) 98,28 %
16.07.2021 01:10 17,7 C 17,2 C 21,7 C 96 % 1018,7 hPa 0,0 l/m 0 min 0 min 0 W/m 16,1 km/h (3 Bft) 100,00 %
16.07.2021 01:12 17,7 C 17,2 C 21,7 C 96 % 1018,7 hPa 0,0 l/m 0 min 0 min 0 W/m 12,9 km/h (3 Bft) 95,74 %
16.07.2021 01:14 17,7 C 17,2 C 21,7 C 96 % 1018,7 hPa 0,0 l/m 0 min 0 min 0 W/m 16,1 km/h (3 Bft) 97,87 %
16.07.2021 01:16 17,7 C 17,2 C 21,7 C 96 % 1018,8 hPa 0,0 l/m 0 min 0 min 0 W/m 12,9 km/h (3 Bft) 97,87 %
16.07.2021 01:18 17,6 C 17,2 C 21,1 C 96 % 1018,8 hPa 0,0 l/m 0 min 0 min 0 W/m 16,1 km/h (3 Bft) 97,87 %
16.07.2021 01:20 17,6 C 17,2 C 21,7 C 96 % 1018,8 hPa 0,0 l/m 0 min 0 min 0 W/m 6,4 km/h (2 Bft) 97,83 %
16.07.2021 01:22 17,6 C 17,2 C 21,1 C 96 % 1018,8 hPa 0,0 l/m 0 min 0 min 0 W/m 12,9 km/h (3 Bft) 97,87 %
16.07.2021 01:24 17,6 C 17,2 C 21,1 C 96 % 1018,8 hPa 0,0 l/m 0 min 0 min 0 W/m 9,7 km/h (2 Bft) 97,87 %
16.07.2021 01:26 17,6 C 17,2 C 21,1 C 96 % 1018,8 hPa 0,0 l/m 0 min 0 min 0 W/m 16,1 km/h (3 Bft) 97,87 %
16.07.2021 01:28 17,6 C 17,2 C 21,7 C 96 % 1018,8 hPa 0,0 l/m 0 min 0 min 0 W/m 9,7 km/h (2 Bft) 95,74 %
16.07.2021 01:30 17,6 C 17,2 C 21,1 C 96 % 1018,8 hPa 0,0 l/m 0 min 0 min 0 W/m 16,1 km/h (3 Bft) 97,87 %
16.07.2021 01:32 17,6 C 16,7 C 21,1 C 96 % 1018,8 hPa 0,0 l/m 0 min 0 min 0 W/m 16,1 km/h (3 Bft) 97,83 %
16.07.2021 01:34 17,6 C 16,7 C 21,1 C 96 % 1018,8 hPa 0,0 l/m 0 min 0 min 0 W/m 9,7 km/h (2 Bft) 95,74 %
16.07.2021 01:36 17,6 C 16,7 C 21,1 C 96 % 1018,9 hPa 0,0 l/m 0 min 0 min 0 W/m 9,7 km/h (2 Bft) 96,61 %
16.07.2021 01:38 17,6 C 16,7 C 21,1 C 96 % 1018,9 hPa 0,0 l/m 0 min 0 min 0 W/m 6,4 km/h (2 Bft) 97,87 %
16.07.2021 01:40 17,6 C 16,7 C 21,1 C 96 % 1018,9 hPa 0,0 l/m 0 min 0 min 0 W/m 6,4 km/h (2 Bft) 94,29 %
16.07.2021 01:42 17,6 C 16,7 C 21,1 C 95 % 1018,9 hPa 0,0 l/m 0 min 0 min 0 W/m 9,7 km/h (2 Bft) 93,62 %
16.07.2021 01:44 17,6 C 16,7 C 21,1 C 95 % 1019,0 hPa 0,0 l/m 0 min 0 min 0 W/m 12,9 km/h (3 Bft) 95,65 %
16.07.2021 01:46 17,5 C 16,7 C 21,1 C 95 % 1018,9 hPa 0,0 l/m 0 min 0 min 0 W/m 6,4 km/h (2 Bft) 95,74 %
16.07.2021 01:48 17,5 C 16,7 C 21,1 C 95 % 1019,0 hPa 0,0 l/m 0 min 0 min 0 W/m 12,9 km/h (3 Bft) 97,87 %
16.07.2021 01:50 17,5 C 16,7 C 21,1 C 95 % 1019,0 hPa 0,0 l/m 0 min 0 min 0 W/m 12,9 km/h (3 Bft) 97,87 %
16.07.2021 01:52 17,5 C 16,7 C 21,1 C 95 % 1018,9 hPa 0,0 l/m 0 min 0 min 0 W/m 9,7 km/h (2 Bft) 95,74 %
16.07.2021 01:54 17,5 C 16,7 C 21,1 C 95 % 1019,0 hPa 0,0 l/m 0 min 0 min 0 W/m 12,9 km/h (3 Bft) 95,74 %
16.07.2021 01:56 17,5 C 16,7 C 21,1 C 95 % 1018,9 hPa 0,0 l/m 0 min 0 min 0 W/m 16,1 km/h (3 Bft) 93,48 %
16.07.2021 01:58 17,5 C 16,7 C 21,1 C 95 % 1019,0 hPa 0,0 l/m 0 min 0 min 0 W/m 19,3 km/h (3 Bft) 93,62 %
16.07.2021 02:00 17,5 C 16,7 C 21,1 C 96 % 1019,0 hPa 0,0 l/m 0 min 0 min 0 W/m 16,1 km/h (3 Bft) 93,62 %
16.07.2021 02:02 17,4 C 16,7 C 21,1 C 95 % 1019,0 hPa 0,0 l/m 0 min 0 min 0 W/m 12,9 km/h (3 Bft) 97,87 %
16.07.2021 02:04 17,4 C 16,7 C 21,1 C 95 % 1019,0 hPa 0,0 l/m 0 min 0 min 0 W/m 12,9 km/h (3 Bft) 97,87 %
16.07.2021 02:06 17,4 C 16,7 C 21,1 C 95 % 1019,0 hPa 0,0 l/m 0 min 0 min 0 W/m 9,7 km/h (2 Bft) 97,87 %
16.07.2021 02:08 17,4 C 16,7 C 21,1 C 95 % 1019,0 hPa 0,0 l/m 0 min 0 min 0 W/m 19,3 km/h (3 Bft) 93,48 %
16.07.2021 02:10 17,4 C 16,7 C 21,1 C 95 % 1019,0 hPa 0,0 l/m 0 min 0 min 0 W/m 19,3 km/h (3 Bft) 97,87 %
16.07.2021 02:12 17,4 C 16,7 C 21,1 C 95 % 1019,0 hPa 0,0 l/m 0 min 0 min 0 W/m 9,7 km/h (2 Bft) 95,74 %
16.07.2021 02:14 17,4 C 16,7 C 21,1 C 95 % 1019,0 hPa 0,0 l/m 0 min 0 min 0 W/m 12,9 km/h (3 Bft) 97,87 %
16.07.2021 02:16 17,4 C 16,7 C 21,1 C 95 % 1019,0 hPa 0,0 l/m 0 min 0 min 0 W/m 22,5 km/h (4 Bft) 97,87 %
16.07.2021 02:18 17,4 C 16,7 C 21,1 C 95 % 1019,0 hPa 0,0 l/m 0 min 0 min 0 W/m 16,1 km/h (3 Bft) 97,87 %
16.07.2021 02:20 17,4 C 16,7 C 21,1 C 95 % 1019,0 hPa 0,0 l/m 0 min 0 min 0 W/m 22,5 km/h (4 Bft) 97,83 %
16.07.2021 02:22 17,4 C 16,7 C 21,1 C 95 % 1019,1 hPa 0,0 l/m 0 min 0 min 0 W/m 16,1 km/h (3 Bft) 95,74 %
16.07.2021 02:24 17,4 C 16,7 C 21,1 C 95 % 1019,1 hPa 0,0 l/m 0 min 0 min 0 W/m 9,7 km/h (2 Bft) 97,87 %
16.07.2021 02:26 17,3 C 16,7 C 21,1 C 95 % 1019,1 hPa 0,0 l/m 0 min 0 min 0 W/m 12,9 km/h (3 Bft) 95,74 %
16.07.2021 02:28 17,3 C 16,7 C 21,1 C 95 % 1019,1 hPa 0,0 l/m 0 min 0 min 0 W/m 16,1 km/h (3 Bft) 97,87 %
16.07.2021 02:30 17,3 C 16,7 C 21,1 C 95 % 1019,1 hPa 0,0 l/m 0 min 0 min 0 W/m 9,7 km/h (2 Bft) 97,87 %
16.07.2021 02:32 17,3 C 16,7 C 21,1 C 95 % 1019,1 hPa 0,0 l/m 0 min 0 min 0 W/m 12,9 km/h (3 Bft) 98,11 %
16.07.2021 02:34 17,3 C 16,7 C 21,1 C 95 % 1019,1 hPa 0,0 l/m 0 min 0 min 0 W/m 12,9 km/h (3 Bft) 97,87 %
16.07.2021 02:36 17,3 C 16,7 C 21,1 C 95 % 1019,2 hPa 0,0 l/m 0 min 0 min 0 W/m 22,5 km/h (4 Bft) 97,87 %
16.07.2021 02:38 17,3 C 16,7 C 21,1 C 95 % 1019,1 hPa 0,0 l/m 0 min 0 min 0 W/m 12,9 km/h (3 Bft) 95,65 %
16.07.2021 02:40 17,3 C 16,7 C 21,1 C 95 % 1019,2 hPa 0,0 l/m 0 min 0 min 0 W/m 9,7 km/h (2 Bft) 95,74 %
16.07.2021 02:42 17,3 C 16,7 C 21,1 C 95 % 1019,1 hPa 0,0 l/m 0 min 0 min 0 W/m 12,9 km/h (3 Bft) 95,74 %
16.07.2021 02:44 17,3 C 16,7 C 21,1 C 95 % 1019,1 hPa 0,0 l/m 0 min 0 min 0 W/m 9,7 km/h (2 Bft) 100,00 %
16.07.2021 02:46 17,3 C 16,7 C 21,1 C 95 % 1019,1 hPa 0,0 l/m 0 min 0 min 0 W/m 19,3 km/h (3 Bft) 100,00 %
16.07.2021 02:48 17,2 C 16,7 C 21,1 C 95 % 1019,2 hPa 0,0 l/m 0 min 0 min 0 W/m 9,7 km/h (2 Bft) 100,00 %
16.07.2021 02:50 17,2 C 16,7 C 20,6 C 95 % 1019,2 hPa 0,0 l/m 0 min 0 min 0 W/m 12,9 km/h (3 Bft) 100,00 %
16.07.2021 02:52 17,2 C 16,7 C 20,6 C 95 % 1019,2 hPa 0,0 l/m 0 min 0 min 0 W/m 16,1 km/h (3 Bft) 100,00 %
16.07.2021 02:54 17,2 C 16,7 C 20,6 C 95 % 1019,2 hPa 0,0 l/m 0 min 0 min 0 W/m 9,7 km/h (2 Bft) 100,00 %
16.07.2021 02:56 17,2 C 16,7 C 20,6 C 95 % 1019,2 hPa 0,0 l/m 0 min 0 min 0 W/m 12,9 km/h (3 Bft) 100,00 %
16.07.2021 02:58 17,1 C 16,7 C 21,1 C 95 % 1019,2 hPa 0,0 l/m 0 min 0 min 0 W/m 12,9 km/h (3 Bft) 100,00 %
16.07.2021 03:00 17,1 C 16,7 C 21,1 C 95 % 1019,2 hPa 0,0 l/m 0 min 0 min 0 W/m 16,1 km/h (3 Bft) 100,00 %
16.07.2021 03:02 17,1 C 16,7 C 20,6 C 95 % 1019,2 hPa 0,0 l/m 0 min 0 min 0 W/m 16,1 km/h (3 Bft) 97,87 %
16.07.2021 03:04 17,1 C 16,7 C 20,6 C 95 % 1019,2 hPa 0,0 l/m 0 min 0 min 0 W/m 12,9 km/h (3 Bft) 97,87 %
16.07.2021 03:06 17,1 C 16,7 C 20,6 C 95 % 1019,2 hPa 0,0 l/m 0 min 0 min 0 W/m 16,1 km/h (3 Bft) 100,00 %
16.07.2021 03:08 17,1 C 16,7 C 20,6 C 95 % 1019,2 hPa 0,0 l/m 0 min 0 min 0 W/m 12,9 km/h (3 Bft) 97,87 %
16.07.2021 03:10 17,1 C 16,7 C 20,6 C 95 % 1019,2 hPa 0,0 l/m 0 min 0 min 0 W/m 12,9 km/h (3 Bft) 100,00 %
16.07.2021 03:12 17,0 C 16,1 C 20,6 C 95 % 1019,2 hPa 0,0 l/m 0 min 0 min 0 W/m 12,9 km/h (3 Bft) 100,00 %
16.07.2021 03:14 17,0 C 16,1 C 20,6 C 95 % 1019,3 hPa 0,0 l/m 0 min 0 min 0 W/m 12,9 km/h (3 Bft) 100,00 %
16.07.2021 03:16 17,0 C 16,1 C 20,6 C 95 % 1019,3 hPa 0,0 l/m 0 min 0 min 0 W/m 19,3 km/h (3 Bft) 100,00 %
16.07.2021 03:18 17,0 C 16,1 C 20,6 C 95 % 1019,3 hPa 0,0 l/m 0 min 0 min 0 W/m 16,1 km/h (3 Bft) 100,00 %
16.07.2021 03:20 17,0 C 16,1 C 20,6 C 95 % 1019,3 hPa 0,0 l/m 0 min 0 min 0 W/m 19,3 km/h (3 Bft) 100,00 %
16.07.2021 03:22 17,0 C 16,1 C 20,6 C 95 % 1019,3 hPa 0,0 l/m 0 min 0 min 0 W/m 16,1 km/h (3 Bft) 100,00 %
16.07.2021 03:24 17,0 C 16,1 C 20,6 C 95 % 1019,4 hPa 0,0 l/m 0 min 0 min 0 W/m 16,1 km/h (3 Bft) 100,00 %
16.07.2021 03:26 17,0 C 16,1 C 20,6 C 95 % 1019,4 hPa 0,0 l/m 0 min 0 min 0 W/m 16,1 km/h (3 Bft) 100,00 %
16.07.2021 03:28 17,0 C 16,1 C 20,6 C 95 % 1019,3 hPa 0,0 l/m 0 min 0 min 0 W/m 25,7 km/h (4 Bft) 100,00 %
16.07.2021 03:30 16,9 C 16,1 C 20,6 C 95 % 1019,3 hPa 0,0 l/m 0 min 0 min 0 W/m 16,1 km/h (3 Bft) 100,00 %
16.07.2021 03:32 16,9 C 16,1 C 20,6 C 95 % 1019,3 hPa 0,0 l/m 0 min 0 min 0 W/m 16,1 km/h (3 Bft) 100,00 %
16.07.2021 03:34 16,9 C 16,1 C 20,6 C 95 % 1019,3 hPa 0,0 l/m 0 min 0 min 0 W/m 19,3 km/h (3 Bft) 100,00 %
16.07.2021 03:36 16,9 C 16,1 C 20,6 C 95 % 1019,3 hPa 0,0 l/m 0 min 0 min 0 W/m 22,5 km/h (4 Bft) 100,00 %
16.07.2021 03:38 16,9 C 16,1 C 20,6 C 95 % 1019,3 hPa 0,0 l/m 0 min 0 min 0 W/m 19,3 km/h (3 Bft) 97,87 %
16.07.2021 03:40 16,8 C 16,1 C 20,6 C 95 % 1019,3 hPa 0,0 l/m 0 min 0 min 0 W/m 12,9 km/h (3 Bft) 100,00 %
16.07.2021 03:42 16,8 C 16,1 C 20,6 C 95 % 1019,3 hPa 0,0 l/m 0 min 0 min 0 W/m 16,1 km/h (3 Bft) 100,00 %
16.07.2021 03:44 16,8 C 16,1 C 20,6 C 95 % 1019,3 hPa 0,0 l/m 0 min 0 min 0 W/m 19,3 km/h (3 Bft) 100,00 %
16.07.2021 03:46 16,8 C 16,1 C 20,6 C 95 % 1019,3 hPa 0,0 l/m 0 min 0 min 0 W/m 16,1 km/h (3 Bft) 100,00 %
16.07.2021 03:48 16,8 C 16,1 C 20,6 C 95 % 1019,2 hPa 0,0 l/m 0 min 0 min 0 W/m 19,3 km/h (3 Bft) 100,00 %
16.07.2021 03:50 16,8 C 16,1 C 20,6 C 95 % 1019,2 hPa 0,0 l/m 0 min 0 min 0 W/m 19,3 km/h (3 Bft) 97,87 %
16.07.2021 03:52 16,7 C 16,1 C 20,6 C 95 % 1019,3 hPa 0,0 l/m 0 min 0 min 0 W/m 19,3 km/h (3 Bft) 100,00 %
16.07.2021 03:54 16,7 C 16,1 C 20,6 C 95 % 1019,3 hPa 0,0 l/m 0 min 0 min 0 W/m 19,3 km/h (3 Bft) 100,00 %
16.07.2021 03:56 16,7 C 16,1 C 20,6 C 95 % 1019,3 hPa 0,0 l/m 0 min 0 min 0 W/m 19,3 km/h (3 Bft) 100,00 %
16.07.2021 03:58 16,6 C 16,1 C 20,6 C 95 % 1019,2 hPa 0,0 l/m 0 min 0 min 0 W/m 19,3 km/h (3 Bft) 100,00 %
16.07.2021 04:00 16,6 C 16,1 C 20,6 C 95 % 1019,2 hPa 0,0 l/m 0 min 0 min 0 W/m 16,1 km/h (3 Bft) 100,00 %
16.07.2021 04:05 16,6 C 16,1 C 20,6 C 95 % 1019,3 hPa 0,0 l/m 0 min 0 min 0 W/m 16,1 km/h (3 Bft) 96,15 %
16.07.2021 04:06 16,6 C 16,1 C 20,6 C 95 % 1019,3 hPa 0,0 l/m 0 min 0 min 0 W/m 12,9 km/h (3 Bft) 91,30 %
16.07.2021 04:08 16,6 C 16,1 C 20,6 C 95 % 1019,3 hPa 0,0 l/m 0 min 0 min 0 W/m 22,5 km/h (4 Bft) 97,87 %
16.07.2021 04:10 16,6 C 16,1 C 20,6 C 95 % 1019,3 hPa 0,0 l/m 0 min 0 min 0 W/m 16,1 km/h (3 Bft) 97,87 %
16.07.2021 04:12 16,6 C 16,1 C 20,6 C 95 % 1019,3 hPa 0,0 l/m 0 min 0 min 0 W/m 9,7 km/h (2 Bft) 97,83 %
16.07.2021 04:14 16,6 C 16,1 C 20,6 C 95 % 1019,4 hPa 0,0 l/m 0 min 0 min 0 W/m 19,3 km/h (3 Bft) 97,87 %
16.07.2021 04:16 16,5 C 16,1 C 20,6 C 95 % 1019,4 hPa 0,0 l/m 0 min 0 min 0 W/m 22,5 km/h (4 Bft) 97,87 %
16.07.2021 04:18 16,5 C 16,1 C 20,6 C 95 % 1019,4 hPa 0,0 l/m 0 min 0 min 0 W/m 9,7 km/h (2 Bft) 97,87 %
16.07.2021 04:20 16,5 C 16,1 C 20,0 C 95 % 1019,4 hPa 0,0 l/m 0 min 0 min 0 W/m 16,1 km/h (3 Bft) 95,74 %
16.07.2021 04:22 16,5 C 16,1 C 20,0 C 95 % 1019,4 hPa 0,0 l/m 0 min 0 min 0 W/m 22,5 km/h (4 Bft) 95,74 %
16.07.2021 04:24 16,5 C 16,1 C 20,0 C 95 % 1019,4 hPa 0,0 l/m 0 min 0 min 0 W/m 22,5 km/h (4 Bft) 95,65 %
16.07.2021 04:26 16,5 C 16,1 C 20,0 C 95 % 1019,4 hPa 0,0 l/m 0 min 0 min 0 W/m 16,1 km/h (3 Bft) 97,87 %
16.07.2021 04:28 16,5 C 16,1 C 20,6 C 95 % 1019,4 hPa 0,0 l/m 0 min 0 min 0 W/m 16,1 km/h (3 Bft) 97,87 %
16.07.2021 04:30 16,5 C 16,1 C 20,0 C 95 % 1019,4 hPa 0,0 l/m 0 min 0 min 0 W/m 12,9 km/h (3 Bft) 97,87 %
16.07.2021 04:32 16,5 C 16,1 C 20,0 C 95 % 1019,4 hPa 0,0 l/m 0 min 0 min 0 W/m 12,9 km/h (3 Bft) 95,74 %
16.07.2021 04:34 16,5 C 16,1 C 20,0 C 95 % 1019,5 hPa 0,0 l/m 0 min 0 min 0 W/m 16,1 km/h (3 Bft) 97,87 %
16.07.2021 04:36 16,5 C 15,6 C 20,0 C 95 % 1019,5 hPa 0,0 l/m 0 min 0 min 0 W/m 19,3 km/h (3 Bft) 97,83 %
16.07.2021 04:38 16,5 C 15,6 C 20,0 C 95 % 1019,5 hPa 0,0 l/m 0 min 0 min 0 W/m 12,9 km/h (3 Bft) 93,62 %
16.07.2021 04:40 16,4 C 15,6 C 20,0 C 95 % 1019,5 hPa 0,0 l/m 0 min 0 min 0 W/m 19,3 km/h (3 Bft) 97,87 %
16.07.2021 04:42 16,4 C 15,6 C 20,0 C 95 % 1019,5 hPa 0,0 l/m 0 min 0 min 0 W/m 16,1 km/h (3 Bft) 97,87 %
16.07.2021 04:44 16,4 C 15,6 C 20,0 C 95 % 1019,5 hPa 0,0 l/m 0 min 0 min 0 W/m 16,1 km/h (3 Bft) 97,87 %
16.07.2021 04:46 16,4 C 15,6 C 20,0 C 95 % 1019,4 hPa 0,0 l/m 0 min 0 min 0 W/m 12,9 km/h (3 Bft) 97,87 %
16.07.2021 04:48 16,4 C 15,6 C 20,0 C 95 % 1019,5 hPa 0,0 l/m 0 min 0 min 0 W/m 25,7 km/h (4 Bft) 93,48 %
16.07.2021 04:50 16,4 C 15,6 C 20,0 C 95 % 1019,5 hPa 0,0 l/m 0 min 0 min 0 W/m 12,9 km/h (3 Bft) 100,00 %
16.07.2021 04:52 16,4 C 15,6 C 20,0 C 95 % 1019,5 hPa 0,0 l/m 0 min 0 min 0 W/m 12,9 km/h (3 Bft) 97,87 %
16.07.2021 04:54 16,4 C 15,6 C 20,0 C 95 % 1019,5 hPa 0,0 l/m 0 min 0 min 0 W/m 19,3 km/h (3 Bft) 95,74 %
16.07.2021 04:56 16,4 C 15,6 C 20,0 C 95 % 1019,5 hPa 0,0 l/m 0 min 0 min 0 W/m 12,9 km/h (3 Bft) 97,87 %
16.07.2021 04:58 16,4 C 15,6 C 20,0 C 95 % 1019,5 hPa 0,0 l/m 0 min 0 min 0 W/m 12,9 km/h (3 Bft) 97,87 %
16.07.2021 05:00 16,4 C 15,6 C 20,0 C 95 % 1019,5 hPa 0,0 l/m 0 min 0 min 0 W/m 9,7 km/h (2 Bft) 97,83 %
16.07.2021 05:02 16,4 C 15,6 C 20,0 C 95 % 1019,6 hPa 0,0 l/m 0 min 0 min 0 W/m 9,7 km/h (2 Bft) 95,74 %
16.07.2021 05:04 16,4 C 15,6 C 20,0 C 95 % 1019,6 hPa 0,0 l/m 0 min 0 min 0 W/m 12,9 km/h (3 Bft) 97,87 %
16.07.2021 05:06 16,4 C 15,6 C 20,0 C 94 % 1019,6 hPa 0,0 l/m 0 min 0 min 0 W/m 12,9 km/h (3 Bft) 97,87 %
16.07.2021 05:08 16,3 C 15,6 C 20,0 C 94 % 1019,6 hPa 0,0 l/m 0 min 0 min 0 W/m 16,1 km/h (3 Bft) 97,87 %
16.07.2021 05:10 16,3 C 15,6 C 20,0 C 94 % 1019,6 hPa 0,0 l/m 0 min 0 min 0 W/m 16,1 km/h (3 Bft) 97,87 %
16.07.2021 05:12 16,3 C 15,6 C 20,0 C 94 % 1019,7 hPa 0,0 l/m 0 min 0 min 0 W/m 12,9 km/h (3 Bft) 97,83 %
16.07.2021 05:14 16,3 C 15,6 C 20,0 C 94 % 1019,6 hPa 0,0 l/m 0 min 0 min 0 W/m 12,9 km/h (3 Bft) 97,87 %
16.07.2021 05:16 16,3 C 15,6 C 20,0 C 94 % 1019,7 hPa 0,0 l/m 0 min 0 min 0 W/m 12,9 km/h (3 Bft) 97,87 %
16.07.2021 05:18 16,3 C 15,6 C 20,0 C 94 % 1019,6 hPa 0,0 l/m 0 min 0 min 0 W/m 9,7 km/h (2 Bft) 97,87 %
16.07.2021 05:20 16,3 C 15,6 C 20,0 C 94 % 1019,7 hPa 0,0 l/m 0 min 0 min 0 W/m 9,7 km/h (2 Bft) 95,74 %
16.07.2021 05:22 16,3 C 15,6 C 20,0 C 94 % 1019,7 hPa 0,0 l/m 0 min 0 min 0 W/m 12,9 km/h (3 Bft) 97,87 %
16.07.2021 05:24 16,3 C 15,6 C 20,0 C 94 % 1019,7 hPa 0,0 l/m 0 min 0 min 0 W/m 12,9 km/h (3 Bft) 95,65 %
16.07.2021 05:26 16,3 C 15,6 C 20,0 C 94 % 1019,8 hPa 0,0 l/m 0 min 0 min 0 W/m 16,1 km/h (3 Bft) 97,87 %
16.07.2021 05:28 16,3 C 15,6 C 20,0 C 94 % 1019,8 hPa 0,0 l/m 0 min 0 min 0 W/m 9,7 km/h (2 Bft) 97,87 %
16.07.2021 05:30 16,3 C 15,6 C 20,0 C 94 % 1019,8 hPa 0,0 l/m 0 min 0 min 0 W/m 9,7 km/h (2 Bft) 97,87 %
16.07.2021 05:32 16,3 C 15,6 C 20,0 C 94 % 1019,8 hPa 0,0 l/m 0 min 0 min 0 W/m 16,1 km/h (3 Bft) 93,62 %
16.07.2021 05:34 16,3 C 15,6 C 20,0 C 94 % 1019,9 hPa 0,0 l/m 0 min 0 min 0 W/m 12,9 km/h (3 Bft) 97,87 %
16.07.2021 05:36 16,3 C 15,6 C 20,0 C 94 % 1020,0 hPa 0,0 l/m 0 min 0 min 0 W/m 9,7 km/h (2 Bft) 97,83 %
16.07.2021 05:38 16,3 C 15,6 C 20,0 C 94 % 1020,0 hPa 0,2 l/m 0 min 0 min 0 W/m 19,3 km/h (3 Bft) 97,87 %
16.07.2021 05:40 16,3 C 15,6 C 20,0 C 94 % 1020,0 hPa 0,0 l/m 0 min 2 min 0 W/m 19,3 km/h (3 Bft) 100,00 %
16.07.2021 05:42 16,3 C 15,6 C 20,0 C 94 % 1020,0 hPa 0,0 l/m 0 min 2 min 0 W/m 12,9 km/h (3 Bft) 97,87 %
16.07.2021 05:44 16,3 C 15,6 C 20,0 C 95 % 1020,0 hPa 0,0 l/m 0 min 0 min 0 W/m 3,2 km/h (1 Bft) 100,00 %
16.07.2021 05:46 16,3 C 15,6 C 20,0 C 94 % 1020,0 hPa 0,0 l/m 0 min 0 min 0 W/m 9,7 km/h (2 Bft) 100,00 %
16.07.2021 05:48 16,3 C 15,6 C 20,0 C 95 % 1020,0 hPa 0,0 l/m 0 min 0 min 0 W/m 3,2 km/h (1 Bft) 100,00 %
16.07.2021 05:50 16,3 C 15,6 C 19,5 C 95 % 1020,0 hPa 0,0 l/m 0 min 0 min 0 W/m 19,3 km/h (3 Bft) 100,00 %
16.07.2021 05:52 16,3 C 15,6 C 19,5 C 95 % 1020,0 hPa 0,0 l/m 0 min 0 min 0 W/m 12,9 km/h (3 Bft) 100,00 %
16.07.2021 05:54 16,2 C 15,6 C 19,5 C 95 % 1020,1 hPa 0,0 l/m 0 min 0 min 0 W/m 12,9 km/h (3 Bft) 100,00 %
16.07.2021 05:56 16,2 C 15,6 C 19,5 C 95 % 1020,0 hPa 0,0 l/m 0 min 0 min 0 W/m 9,7 km/h (2 Bft) 100,00 %
16.07.2021 05:58 16,2 C 15,6 C 20,0 C 95 % 1020,0 hPa 0,0 l/m 0 min 0 min 0 W/m 9,7 km/h (2 Bft) 100,00 %
16.07.2021 06:00 16,2 C 15,6 C 20,0 C 95 % 1020,0 hPa 0,0 l/m 0 min 0 min 4 W/m 12,9 km/h (3 Bft) 100,00 %
16.07.2021 06:02 16,1 C 15,6 C 20,0 C 95 % 1020,0 hPa 0,0 l/m 0 min 0 min 5 W/m 9,7 km/h (2 Bft) 97,87 %
16.07.2021 06:04 16,1 C 15,6 C 19,5 C 95 % 1020,1 hPa 0,0 l/m 0 min 0 min 5 W/m 12,9 km/h (3 Bft) 100,00 %
16.07.2021 06:08 16,1 C 15,6 C 19,5 C 95 % 1020,1 hPa 0,0 l/m 0 min 0 min 7 W/m 16,1 km/h (3 Bft) 98,95 %
16.07.2021 06:10 16,1 C 15,6 C 20,0 C 95 % 1020,1 hPa 0,0 l/m 0 min 0 min 7 W/m 9,7 km/h (2 Bft) 100,00 %
16.07.2021 06:12 16,1 C 15,6 C 20,0 C 95 % 1020,2 hPa 0,0 l/m 0 min 0 min 7 W/m 3,2 km/h (1 Bft) 100,00 %
16.07.2021 06:14 16,1 C 15,6 C 20,0 C 95 % 1020,3 hPa 0,0 l/m 0 min 0 min 7 W/m 9,7 km/h (2 Bft) 100,00 %
16.07.2021 06:16 16,1 C 15,6 C 20,0 C 95 % 1020,2 hPa 0,0 l/m 0 min 0 min 7 W/m 9,7 km/h (2 Bft) 93,62 %
16.07.2021 06:18 16,1 C 15,6 C 20,0 C 95 % 1020,3 hPa 0,0 l/m 0 min 0 min 7 W/m 12,9 km/h (3 Bft) 100,00 %
16.07.2021 06:20 16,1 C 15,6 C 19,5 C 95 % 1020,2 hPa 0,0 l/m 0 min 0 min 9 W/m 12,9 km/h (3 Bft) 97,87 %
16.07.2021 06:22 16,1 C 15,6 C 19,5 C 95 % 1020,2 hPa 0,0 l/m 0 min 0 min 9 W/m 19,3 km/h (3 Bft) 100,00 %
16.07.2021 06:24 16,1 C 15,6 C 19,5 C 95 % 1020,3 hPa 0,0 l/m 0 min 0 min 9 W/m 16,1 km/h (3 Bft) 97,83 %
16.07.2021 06:26 16,0 C 15,6 C 19,5 C 95 % 1020,3 hPa 0,0 l/m 0 min 0 min 9 W/m 19,3 km/h (3 Bft) 97,87 %
16.07.2021 06:28 16,0 C 15,6 C 20,0 C 94 % 1020,3 hPa 0,0 l/m 0 min 0 min 11 W/m 12,9 km/h (3 Bft) 100,00 %
16.07.2021 06:30 16,0 C 15,6 C 20,0 C 94 % 1020,3 hPa 0,0 l/m 0 min 0 min 11 W/m 9,7 km/h (2 Bft) 95,74 %
16.07.2021 06:32 16,0 C 15,6 C 20,0 C 94 % 1020,3 hPa 0,0 l/m 0 min 0 min 11 W/m 9,7 km/h (2 Bft) 97,87 %
16.07.2021 06:34 16,0 C 15,6 C 19,5 C 94 % 1020,3 hPa 0,0 l/m 0 min 0 min 11 W/m 9,7 km/h (2 Bft) 100,00 %
16.07.2021 06:36 16,0 C 15,6 C 19,5 C 95 % 1020,3 hPa 0,0 l/m 0 min 0 min 12 W/m 6,4 km/h (2 Bft) 100,00 %
16.07.2021 06:38 16,0 C 15,6 C 19,5 C 95 % 1020,3 hPa 0,0 l/m 0 min 0 min 12 W/m 9,7 km/h (2 Bft) 100,00 %
16.07.2021 06:40 16,1 C 15,6 C 19,5 C 95 % 1020,3 hPa 0,0 l/m 0 min 0 min 14 W/m 6,4 km/h (2 Bft) 100,00 %
16.07.2021 06:42 16,1 C 15,6 C 19,5 C 95 % 1020,3 hPa 0,0 l/m 0 min 0 min 17 W/m 9,7 km/h (2 Bft) 100,00 %
16.07.2021 06:44 16,1 C 15,6 C 19,5 C 95 % 1020,4 hPa 0,0 l/m 0 min 0 min 21 W/m 12,9 km/h (3 Bft) 100,00 %
16.07.2021 06:46 16,1 C 15,6 C 19,5 C 95 % 1020,4 hPa 0,0 l/m 0 min 0 min 25 W/m 9,7 km/h (2 Bft) 100,00 %
16.07.2021 06:48 16,0 C 15,6 C 19,5 C 95 % 1020,3 hPa 0,0 l/m 0 min 0 min 27 W/m 9,7 km/h (2 Bft) 100,00 %
16.07.2021 06:50 16,0 C 15,6 C 19,5 C 95 % 1020,4 hPa 0,0 l/m 0 min 0 min 30 W/m 9,7 km/h (2 Bft) 100,00 %
16.07.2021 06:52 16,0 C 15,6 C 19,5 C 95 % 1020,4 hPa 0,0 l/m 0 min 0 min 42 W/m 6,4 km/h (2 Bft) 100,00 %
16.07.2021 06:54 16,0 C 15,6 C 19,5 C 95 % 1020,4 hPa 0,0 l/m 0 min 0 min 53 W/m 12,9 km/h (3 Bft) 97,87 %
16.07.2021 06:56 16,1 C 15,6 C 19,5 C 95 % 1020,4 hPa 0,0 l/m 0 min 0 min 64 W/m 6,4 km/h (2 Bft) 97,87 %
16.07.2021 06:58 16,1 C 15,6 C 20,0 C 95 % 1020,4 hPa 0,0 l/m 0 min 0 min 76 W/m 6,4 km/h (2 Bft) 97,87 %
16.07.2021 07:00 16,1 C 15,6 C 20,0 C 95 % 1020,4 hPa 0,0 l/m 0 min 0 min 76 W/m 9,7 km/h (2 Bft) 97,83 %
16.07.2021 07:02 16,1 C 15,6 C 20,0 C 95 % 1020,5 hPa 0,0 l/m 0 min 0 min 70 W/m 6,4 km/h (2 Bft) 95,74 %
16.07.2021 07:04 16,1 C 15,6 C 19,5 C 95 % 1020,5 hPa 0,0 l/m 0 min 0 min 62 W/m 12,9 km/h (3 Bft) 97,87 %
16.07.2021 07:06 16,1 C 15,6 C 19,5 C 95 % 1020,5 hPa 0,0 l/m 0 min 0 min 66 W/m 12,9 km/h (3 Bft) 97,87 %
16.07.2021 07:08 16,1 C 15,6 C 19,5 C 95 % 1020,5 hPa 0,0 l/m 0 min 0 min 66 W/m 9,7 km/h (2 Bft) 97,87 %
16.07.2021 07:10 16,1 C 15,6 C 20,0 C 95 % 1020,5 hPa 0,0 l/m 0 min 0 min 75 W/m 22,5 km/h (4 Bft) 97,87 %
16.07.2021 07:12 16,1 C 15,6 C 20,0 C 95 % 1020,5 hPa 0,0 l/m 0 min 0 min 72 W/m 9,7 km/h (2 Bft) 95,65 %
16.07.2021 07:14 16,1 C 15,6 C 20,0 C 95 % 1020,5 hPa 0,0 l/m 0 min 0 min 60 W/m 9,7 km/h (2 Bft) 97,87 %
16.07.2021 07:16 16,1 C 15,6 C 20,0 C 95 % 1020,5 hPa 0,0 l/m 0 min 0 min 58 W/m 6,4 km/h (2 Bft) 95,74 %
16.07.2021 07:18 16,1 C 15,6 C 20,0 C 95 % 1020,5 hPa 0,0 l/m 0 min 0 min 44 W/m 16,1 km/h (3 Bft) 97,87 %
16.07.2021 07:20 16,1 C 15,6 C 20,0 C 95 % 1020,5 hPa 0,0 l/m 0 min 0 min 36 W/m 12,9 km/h (3 Bft) 97,87 %
16.07.2021 07:22 16,1 C 15,6 C 19,5 C 95 % 1020,6 hPa 0,0 l/m 0 min 0 min 33 W/m 9,7 km/h (2 Bft) 97,83 %
16.07.2021 07:24 16,1 C 15,6 C 19,5 C 95 % 1020,6 hPa 0,0 l/m 0 min 0 min 33 W/m 6,4 km/h (2 Bft) 95,74 %
16.07.2021 07:26 16,1 C 15,6 C 20,0 C 95 % 1020,5 hPa 0,0 l/m 0 min 0 min 37 W/m 9,7 km/h (2 Bft) 95,74 %
16.07.2021 07:28 16,1 C 15,6 C 20,0 C 95 % 1020,6 hPa 0,0 l/m 0 min 0 min 34 W/m 6,4 km/h (2 Bft) 97,87 %
16.07.2021 07:30 16,2 C 15,6 C 20,0 C 95 % 1020,6 hPa 0,0 l/m 0 min 0 min 26 W/m 16,1 km/h (3 Bft) 95,74 %
16.07.2021 07:32 16,2 C 15,6 C 20,0 C 95 % 1020,6 hPa 0,0 l/m 0 min 0 min 20 W/m 19,3 km/h (3 Bft) 95,74 %
16.07.2021 07:34 16,1 C 15,6 C 19,5 C 95 % 1020,6 hPa 0,0 l/m 0 min 0 min 19 W/m 22,5 km/h (4 Bft) 95,65 %
16.07.2021 07:36 16,1 C 15,6 C 19,5 C 95 % 1020,6 hPa 0,0 l/m 0 min 0 min 23 W/m 16,1 km/h (3 Bft) 95,74 %
16.07.2021 07:38 16,1 C 15,6 C 19,5 C 95 % 1020,7 hPa 0,0 l/m 0 min 0 min 35 W/m 16,1 km/h (3 Bft) 97,87 %
16.07.2021 07:40 16,1 C 15,6 C 19,5 C 95 % 1020,7 hPa 0,0 l/m 0 min 0 min 51 W/m 12,9 km/h (3 Bft) 97,87 %
16.07.2021 07:42 16,1 C 15,6 C 19,5 C 95 % 1020,7 hPa 0,0 l/m 0 min 0 min 63 W/m 19,3 km/h (3 Bft) 97,87 %
16.07.2021 07:44 16,1 C 15,6 C 20,0 C 95 % 1020,7 hPa 0,0 l/m 0 min 0 min 71 W/m 16,1 km/h (3 Bft) 57,45 %
16.07.2021 07:46 16,1 C 15,6 C 20,0 C 95 % 1020,7 hPa 0,0 l/m 0 min 0 min 87 W/m 16,1 km/h (3 Bft) 95,65 %
16.07.2021 07:48 16,1 C 16,1 C 20,0 C 95 % 1020,7 hPa 0,0 l/m 0 min 0 min 107 W/m 16,1 km/h (3 Bft) 97,87 %
16.07.2021 07:50 16,1 C 16,1 C 20,0 C 95 % 1020,7 hPa 0,0 l/m 0 min 0 min 120 W/m 16,1 km/h (3 Bft) 97,87 %
16.07.2021 07:52 16,1 C 16,1 C 20,0 C 95 % 1020,7 hPa 0,0 l/m 0 min 0 min 123 W/m 12,9 km/h (3 Bft) 95,74 %
16.07.2021 07:54 16,1 C 16,1 C 20,0 C 95 % 1020,9 hPa 0,0 l/m 0 min 0 min 114 W/m 12,9 km/h (3 Bft) 97,87 %
16.07.2021 07:56 16,1 C 16,1 C 20,0 C 95 % 1020,8 hPa 0,0 l/m 0 min 0 min 104 W/m 16,1 km/h (3 Bft) 97,87 %
16.07.2021 07:58 16,2 C 16,1 C 20,0 C 95 % 1020,9 hPa 0,0 l/m 0 min 0 min 92 W/m 12,9 km/h (3 Bft) 97,83 %
16.07.2021 08:00 16,2 C 16,1 C 20,0 C 95 % 1020,9 hPa 0,0 l/m 0 min 0 min 89 W/m 16,1 km/h (3 Bft) 97,87 %
16.07.2021 08:02 16,2 C 16,1 C 20,0 C 95 % 1020,8 hPa 0,0 l/m 0 min 0 min 93 W/m 16,1 km/h (3 Bft) 95,74 %
16.07.2021 08:04 16,1 C 16,1 C 20,0 C 95 % 1020,8 hPa 0,0 l/m 0 min 0 min 89 W/m 16,1 km/h (3 Bft) 97,87 %
16.07.2021 08:06 16,1 C 16,1 C 20,0 C 95 % 1020,9 hPa 0,0 l/m 0 min 0 min 85 W/m 16,1 km/h (3 Bft) 97,87 %
16.07.2021 08:08 16,1 C 15,6 C 19,5 C 95 % 1020,8 hPa 0,0 l/m 0 min 0 min 62 W/m 16,1 km/h (3 Bft) 97,87 %
16.07.2021 08:10 16,1 C 15,6 C 19,5 C 95 % 1020,8 hPa 0,0 l/m 0 min 0 min 45 W/m 12,9 km/h (3 Bft) 95,65 %
16.07.2021 08:12 16,1 C 15,6 C 19,5 C 95 % 1020,8 hPa 0,0 l/m 0 min 0 min 43 W/m 16,1 km/h (3 Bft) 97,87 %
16.07.2021 08:14 16,1 C 15,6 C 19,5 C 95 % 1020,9 hPa 0,0 l/m 0 min 0 min 43 W/m 9,7 km/h (2 Bft) 95,74 %
16.07.2021 08:16 16,1 C 15,6 C 19,5 C 95 % 1020,9 hPa 0,0 l/m 0 min 0 min 50 W/m 16,1 km/h (3 Bft) 97,87 %
16.07.2021 08:18 16,1 C 15,6 C 19,5 C 95 % 1020,9 hPa 0,0 l/m 0 min 0 min 56 W/m 9,7 km/h (2 Bft) 97,87 %
16.07.2021 08:20 16,1 C 15,6 C 19,5 C 95 % 1020,9 hPa 0,0 l/m 0 min 0 min 61 W/m 9,7 km/h (2 Bft) 97,92 %
16.07.2021 08:22 16,1 C 15,6 C 19,5 C 95 % 1021,0 hPa 0,0 l/m 0 min 0 min 49 W/m 19,3 km/h (3 Bft) 95,65 %
16.07.2021 08:24 16,1 C 15,6 C 19,5 C 95 % 1020,9 hPa 0,0 l/m 0 min 0 min 46 W/m 9,7 km/h (2 Bft) 97,87 %
16.07.2021 08:26 16,1 C 15,6 C 19,5 C 94 % 1020,9 hPa 0,0 l/m 0 min 0 min 46 W/m 12,9 km/h (3 Bft) 97,37 %
16.07.2021 08:28 16,0 C 15,6 C 19,5 C 94 % 1020,9 hPa 0,0 l/m 0 min 0 min 44 W/m 12,9 km/h (3 Bft) 97,83 %
16.07.2021 08:30 16,0 C 15,6 C 19,5 C 94 % 1020,9 hPa 0,0 l/m 0 min 0 min 56 W/m 6,4 km/h (2 Bft) 97,87 %
16.07.2021 08:32 16,0 C 15,6 C 19,5 C 94 % 1020,9 hPa 0,0 l/m 0 min 0 min 85 W/m 16,1 km/h (3 Bft) 97,87 %
16.07.2021 08:34 16,0 C 15,6 C 19,5 C 94 % 1020,9 hPa 0,0 l/m 0 min 0 min 113 W/m 12,9 km/h (3 Bft) 97,87 %
16.07.2021 08:36 16,0 C 15,6 C 19,5 C 94 % 1021,0 hPa 0,0 l/m 0 min 0 min 85 W/m 12,9 km/h (3 Bft) 97,87 %
16.07.2021 08:38 16,0 C 15,6 C 19,5 C 94 % 1021,0 hPa 0,0 l/m 0 min 0 min 92 W/m 19,3 km/h (3 Bft) 100,00 %
16.07.2021 08:40 16,0 C 15,6 C 19,5 C 94 % 1020,9 hPa 0,0 l/m 0 min 0 min 101 W/m 19,3 km/h (3 Bft) 100,00 %
16.07.2021 08:42 16,0 C 15,6 C 19,5 C 94 % 1021,0 hPa 0,0 l/m 0 min 0 min 112 W/m 19,3 km/h (3 Bft) 100,00 %
16.07.2021 08:44 16,0 C 16,1 C 20,0 C 94 % 1021,0 hPa 0,0 l/m 0 min 0 min 122 W/m 22,5 km/h (4 Bft) 100,00 %
16.07.2021 08:46 16,0 C 16,1 C 20,0 C 94 % 1021,0 hPa 0,0 l/m 0 min 0 min 121 W/m 19,3 km/h (3 Bft) 100,00 %
16.07.2021 08:48 16,0 C 16,1 C 19,5 C 94 % 1021,1 hPa 0,0 l/m 0 min 0 min 114 W/m 19,3 km/h (3 Bft) 100,00 %
16.07.2021 08:50 16,0 C 16,1 C 19,5 C 94 % 1021,1 hPa 0,0 l/m 0 min 0 min 105 W/m 16,1 km/h (3 Bft) 98,28 %
16.07.2021 08:52 16,0 C 16,1 C 19,5 C 94 % 1021,1 hPa 0,0 l/m 0 min 0 min 109 W/m 25,7 km/h (4 Bft) 95,74 %
16.07.2021 08:54 16,0 C 16,1 C 19,5 C 94 % 1021,0 hPa 0,0 l/m 0 min 0 min 125 W/m 19,3 km/h (3 Bft) 100,00 %
16.07.2021 08:56 16,0 C 16,1 C 20,0 C 94 % 1021,1 hPa 0,0 l/m 0 min 0 min 122 W/m 9,7 km/h (2 Bft) 97,87 %
16.07.2021 08:59 16,1 C 16,1 C 20,0 C 94 % 1021,1 hPa 0,0 l/m 0 min 0 min 116 W/m 12,9 km/h (3 Bft) 98,57 %
16.07.2021 09:00 16,1 C 16,1 C 20,0 C 94 % 1021,1 hPa 0,0 l/m 0 min 0 min 135 W/m 22,5 km/h (4 Bft) 95,65 %
16.07.2021 09:02 16,1 C 16,1 C 20,0 C 94 % 1021,2 hPa 0,0 l/m 0 min 0 min 121 W/m 29,0 km/h (5 Bft) 100,00 %
16.07.2021 09:04 16,1 C 16,1 C 20,0 C 94 % 1021,2 hPa 0,0 l/m 0 min 0 min 86 W/m 19,3 km/h (3 Bft) 97,83 %
16.07.2021 09:06 16,0 C 15,6 C 19,5 C 94 % 1021,3 hPa 0,0 l/m 0 min 0 min 69 W/m 19,3 km/h (3 Bft) 97,87 %
16.07.2021 09:08 16,0 C 15,6 C 19,5 C 93 % 1021,3 hPa 0,0 l/m 0 min 0 min 66 W/m 16,1 km/h (3 Bft) 93,62 %
16.07.2021 09:10 16,0 C 15,6 C 19,5 C 93 % 1021,3 hPa 0,0 l/m 0 min 0 min 62 W/m 9,7 km/h (2 Bft) 97,87 %
16.07.2021 09:12 16,0 C 15,6 C 19,5 C 93 % 1021,4 hPa 0,0 l/m 0 min 0 min 55 W/m 12,9 km/h (3 Bft) 97,87 %
16.07.2021 09:14 16,0 C 15,6 C 19,5 C 93 % 1021,4 hPa 0,0 l/m 0 min 0 min 73 W/m 22,5 km/h (4 Bft) 97,87 %
16.07.2021 09:16 16,0 C 15,6 C 19,5 C 93 % 1021,4 hPa 0,0 l/m 0 min 0 min 113 W/m 19,3 km/h (3 Bft) 95,65 %
16.07.2021 09:18 16,0 C 15,6 C 19,5 C 93 % 1021,4 hPa 0,0 l/m 0 min 0 min 136 W/m 22,5 km/h (4 Bft) 97,87 %
16.07.2021 09:20 16,0 C 16,1 C 19,5 C 93 % 1021,3 hPa 0,0 l/m 0 min 0 min 153 W/m 12,9 km/h (3 Bft) 97,87 %
16.07.2021 09:22 16,0 C 16,1 C 19,5 C 93 % 1021,4 hPa 0,0 l/m 0 min 0 min 161 W/m 9,7 km/h (2 Bft) 97,87 %
16.07.2021 09:24 16,0 C 16,1 C 20,0 C 93 % 1021,4 hPa 0,0 l/m 0 min 0 min 172 W/m 19,3 km/h (3 Bft) 97,87 %
16.07.2021 09:26 16,0 C 16,1 C 20,0 C 93 % 1021,4 hPa 0,0 l/m 0 min 0 min 187 W/m 16,1 km/h (3 Bft) 97,83 %
16.07.2021 09:28 16,1 C 16,1 C 20,0 C 93 % 1021,4 hPa 0,0 l/m 0 min 0 min 197 W/m 22,5 km/h (4 Bft) 97,87 %
16.07.2021 09:30 16,1 C 16,7 C 20,0 C 93 % 1021,4 hPa 0,0 l/m 0 min 0 min 194 W/m 6,4 km/h (2 Bft) 97,87 %
16.07.2021 09:32 16,2 C 16,7 C 20,0 C 93 % 1021,4 hPa 0,0 l/m 0 min 0 min 209 W/m 19,3 km/h (3 Bft) 97,87 %
16.07.2021 09:34 16,2 C 16,7 C 20,0 C 93 % 1021,5 hPa 0,0 l/m 0 min 0 min 220 W/m 16,1 km/h (3 Bft) 97,87 %
16.07.2021 09:36 16,3 C 16,7 C 20,0 C 93 % 1021,5 hPa 0,0 l/m 0 min 0 min 223 W/m 12,9 km/h (3 Bft) 97,87 %
16.07.2021 09:38 16,3 C 16,7 C 20,0 C 93 % 1021,5 hPa 0,0 l/m 0 min 0 min 243 W/m 12,9 km/h (3 Bft) 98,11 %
16.07.2021 09:40 16,4 C 17,2 C 20,6 C 93 % 1021,5 hPa 0,0 l/m 0 min 0 min 257 W/m 16,1 km/h (3 Bft) 97,87 %
16.07.2021 09:42 16,4 C 17,2 C 20,6 C 92 % 1021,5 hPa 0,0 l/m 0 min 0 min 252 W/m 9,7 km/h (2 Bft) 95,74 %
16.07.2021 09:44 16,4 C 17,2 C 20,6 C 92 % 1021,5 hPa 0,0 l/m 0 min 0 min 247 W/m 12,9 km/h (3 Bft) 95,74 %
16.07.2021 09:46 16,5 C 17,2 C 20,6 C 92 % 1021,5 hPa 0,0 l/m 0 min 0 min 225 W/m 22,5 km/h (4 Bft) 95,65 %
16.07.2021 09:48 16,5 C 16,7 C 20,0 C 91 % 1021,6 hPa 0,0 l/m 0 min 0 min 194 W/m 16,1 km/h (3 Bft) 95,74 %
16.07.2021 09:50 16,5 C 16,7 C 20,0 C 91 % 1021,6 hPa 0,0 l/m 0 min 0 min 189 W/m 22,5 km/h (4 Bft) 89,36 %
16.07.2021 09:52 16,6 C 17,2 C 20,0 C 91 % 1021,6 hPa 0,0 l/m 0 min 0 min 191 W/m 9,7 km/h (2 Bft) 95,74 %
16.07.2021 09:54 16,6 C 16,7 C 20,0 C 91 % 1021,6 hPa 0,0 l/m 0 min 0 min 187 W/m 16,1 km/h (3 Bft) 95,74 %
16.07.2021 09:56 16,6 C 17,2 C 20,0 C 90 % 1021,6 hPa 0,0 l/m 0 min 0 min 216 W/m 9,7 km/h (2 Bft) 95,65 %
16.07.2021 09:58 16,7 C 17,2 C 20,6 C 90 % 1021,6 hPa 0,0 l/m 0 min 0 min 249 W/m 16,1 km/h (3 Bft) 95,74 %
16.07.2021 10:00 16,8 C 17,2 C 20,6 C 90 % 1021,6 hPa 0,0 l/m 0 min 0 min 296 W/m 22,5 km/h (4 Bft) 95,74 %
16.07.2021 10:02 16,8 C 17,2 C 20,6 C 90 % 1021,6 hPa 0,0 l/m 2 min 0 min 333 W/m 22,5 km/h (4 Bft) 95,74 %
16.07.2021 10:04 16,8 C 17,2 C 20,6 C 90 % 1021,6 hPa 0,0 l/m 2 min 0 min 318 W/m 16,1 km/h (3 Bft) 95,74 %
16.07.2021 10:06 16,9 C 17,8 C 20,6 C 90 % 1021,6 hPa 0,0 l/m 0 min 0 min 268 W/m 6,4 km/h (2 Bft) 91,49 %
16.07.2021 10:08 17,0 C 17,8 C 20,6 C 90 % 1021,7 hPa 0,0 l/m 0 min 0 min 202 W/m 16,1 km/h (3 Bft) 95,65 %
16.07.2021 10:10 17,0 C 17,8 C 20,6 C 89 % 1021,7 hPa 0,0 l/m 0 min 0 min 175 W/m 12,9 km/h (3 Bft) 95,74 %
16.07.2021 10:12 17,0 C 17,8 C 20,6 C 89 % 1021,6 hPa 0,0 l/m 0 min 0 min 184 W/m 12,9 km/h (3 Bft) 93,62 %
16.07.2021 10:14 17,0 C 17,8 C 20,6 C 89 % 1021,7 hPa 0,0 l/m 0 min 0 min 214 W/m 12,9 km/h (3 Bft) 95,74 %
16.07.2021 10:16 17,1 C 17,8 C 20,6 C 89 % 1021,7 hPa 0,0 l/m 0 min 0 min 224 W/m 9,7 km/h (2 Bft) 97,87 %
16.07.2021 10:18 17,1 C 17,8 C 20,6 C 89 % 1021,7 hPa 0,0 l/m 0 min 0 min 210 W/m 12,9 km/h (3 Bft) 95,74 %
16.07.2021 10:20 17,2 C 17,8 C 20,6 C 89 % 1021,7 hPa 0,0 l/m 0 min 0 min 206 W/m 12,9 km/h (3 Bft) 95,65 %
16.07.2021 10:22 17,2 C 17,8 C 20,6 C 89 % 1021,7 hPa 0,0 l/m 0 min 0 min 209 W/m 12,9 km/h (3 Bft) 95,74 %
16.07.2021 10:24 17,3 C 17,8 C 20,6 C 89 % 1021,7 hPa 0,0 l/m 0 min 0 min 205 W/m 12,9 km/h (3 Bft) 95,74 %
16.07.2021 10:26 17,3 C 17,2 C 20,6 C 89 % 1021,8 hPa 0,0 l/m 0 min 0 min 180 W/m 19,3 km/h (3 Bft) 95,74 %
16.07.2021 10:28 17,3 C 17,8 C 20,6 C 88 % 1021,8 hPa 0,0 l/m 0 min 0 min 177 W/m 12,9 km/h (3 Bft) 97,87 %
16.07.2021 10:30 17,3 C 17,2 C 20,6 C 88 % 1021,8 hPa 0,0 l/m 0 min 0 min 207 W/m 9,7 km/h (2 Bft) 97,87 %
16.07.2021 10:32 17,3 C 17,2 C 20,6 C 88 % 1021,8 hPa 0,0 l/m 0 min 0 min 283 W/m 16,1 km/h (3 Bft) 97,87 %
16.07.2021 10:34 17,3 C 17,8 C 21,1 C 88 % 1021,9 hPa 0,0 l/m 2 min 0 min 414 W/m 16,1 km/h (3 Bft) 97,87 %
16.07.2021 10:36 17,4 C 18,3 C 21,1 C 88 % 1021,9 hPa 0,0 l/m 2 min 0 min 343 W/m 16,1 km/h (3 Bft) 97,87 %
16.07.2021 10:38 17,4 C 18,3 C 21,1 C 88 % 1021,9 hPa 0,0 l/m 0 min 0 min 229 W/m 12,9 km/h (3 Bft) 93,62 %
16.07.2021 10:40 17,5 C 18,3 C 21,1 C 88 % 1021,9 hPa 0,0 l/m 0 min 0 min 245 W/m 12,9 km/h (3 Bft) 97,87 %
16.07.2021 10:42 17,5 C 18,3 C 21,1 C 88 % 1021,9 hPa 0,0 l/m 0 min 0 min 281 W/m 12,9 km/h (3 Bft) 97,87 %
16.07.2021 10:44 17,5 C 18,3 C 21,1 C 87 % 1021,9 hPa 0,0 l/m 2 min 0 min 350 W/m 12,9 km/h (3 Bft) 97,83 %
16.07.2021 10:46 17,6 C 18,3 C 21,1 C 87 % 1022,0 hPa 0,0 l/m 2 min 0 min 379 W/m 9,7 km/h (2 Bft) 97,87 %
16.07.2021 10:48 17,6 C 18,9 C 21,7 C 87 % 1021,9 hPa 0,0 l/m 2 min 0 min 411 W/m 19,3 km/h (3 Bft) 95,74 %
16.07.2021 10:50 17,7 C 18,9 C 21,7 C 87 % 1021,9 hPa 0,0 l/m 2 min 0 min 419 W/m 12,9 km/h (3 Bft) 97,87 %
16.07.2021 10:52 17,8 C 18,9 C 21,7 C 87 % 1021,9 hPa 0,0 l/m 2 min 0 min 347 W/m 16,1 km/h (3 Bft) 97,87 %
16.07.2021 10:54 17,9 C 18,9 C 21,7 C 87 % 1022,0 hPa 0,0 l/m 2 min 0 min 363 W/m 9,7 km/h (2 Bft) 97,87 %
16.07.2021 10:56 17,9 C 18,9 C 21,7 C 86 % 1021,9 hPa 0,0 l/m 0 min 0 min 346 W/m 12,9 km/h (3 Bft) 95,65 %
16.07.2021 10:58 18,0 C 18,9 C 21,7 C 86 % 1022,0 hPa 0,0 l/m 2 min 0 min 393 W/m 19,3 km/h (3 Bft) 95,74 %
16.07.2021 11:00 18,1 C 18,9 C 21,1 C 86 % 1021,9 hPa 0,0 l/m 0 min 0 min 345 W/m 12,9 km/h (3 Bft) 93,62 %
16.07.2021 11:02 18,1 C 18,9 C 21,1 C 86 % 1022,0 hPa 0,0 l/m 0 min 0 min 322 W/m 19,3 km/h (3 Bft) 95,83 %
16.07.2021 11:04 18,1 C 18,3 C 21,1 C 85 % 1022,0 hPa 0,0 l/m 0 min 0 min 294 W/m 6,4 km/h (2 Bft) 95,74 %
16.07.2021 11:06 18,1 C 18,9 C 21,1 C 85 % 1022,0 hPa 0,0 l/m 0 min 0 min 282 W/m 9,7 km/h (2 Bft) 95,65 %
16.07.2021 11:08 18,2 C 18,9 C 21,1 C 85 % 1022,0 hPa 0,0 l/m 0 min 0 min 275 W/m 9,7 km/h (2 Bft) 95,74 %
16.07.2021 11:10 18,2 C 18,9 C 21,1 C 85 % 1022,0 hPa 0,0 l/m 0 min 0 min 262 W/m 9,7 km/h (2 Bft) 93,62 %
16.07.2021 11:12 18,3 C 18,9 C 20,6 C 85 % 1022,0 hPa 0,0 l/m 0 min 0 min 236 W/m 12,9 km/h (3 Bft) 95,74 %
16.07.2021 11:14 18,3 C 18,3 C 20,6 C 85 % 1022,1 hPa 0,0 l/m 0 min 0 min 191 W/m 12,9 km/h (3 Bft) 93,62 %
16.07.2021 11:16 18,3 C 18,3 C 20,6 C 85 % 1022,0 hPa 0,0 l/m 0 min 0 min 177 W/m 19,3 km/h (3 Bft) 91,49 %
16.07.2021 11:18 18,3 C 18,3 C 20,6 C 84 % 1022,1 hPa 0,0 l/m 0 min 0 min 195 W/m 19,3 km/h (3 Bft) 95,65 %
16.07.2021 11:20 18,2 C 18,3 C 20,0 C 84 % 1022,1 hPa 0,0 l/m 0 min 0 min 214 W/m 12,9 km/h (3 Bft) 97,87 %
16.07.2021 11:22 18,2 C 18,3 C 20,0 C 84 % 1022,1 hPa 0,0 l/m 0 min 0 min 232 W/m 16,1 km/h (3 Bft) 97,87 %
16.07.2021 11:24 18,1 C 18,3 C 20,0 C 84 % 1022,1 hPa 0,0 l/m 0 min 0 min 239 W/m 12,9 km/h (3 Bft) 97,87 %
16.07.2021 11:26 18,1 C 18,3 C 20,0 C 84 % 1022,2 hPa 0,0 l/m 0 min 0 min 225 W/m 9,7 km/h (2 Bft) 95,74 %
16.07.2021 11:28 18,1 C 18,3 C 20,0 C 84 % 1022,1 hPa 0,0 l/m 0 min 0 min 215 W/m 9,7 km/h (2 Bft) 95,74 %
16.07.2021 11:30 18,1 C 18,3 C 20,0 C 85 % 1022,1 hPa 0,0 l/m 0 min 0 min 236 W/m 12,9 km/h (3 Bft) 95,65 %
16.07.2021 11:32 18,1 C 18,9 C 20,6 C 85 % 1022,2 hPa 0,0 l/m 0 min 0 min 278 W/m 16,1 km/h (3 Bft) 97,87 %
16.07.2021 11:34 18,2 C 18,9 C 20,6 C 85 % 1022,1 hPa 0,0 l/m 0 min 0 min 301 W/m 9,7 km/h (2 Bft) 97,87 %
16.07.2021 11:36 18,2 C 18,9 C 20,6 C 85 % 1022,2 hPa 0,0 l/m 0 min 0 min 269 W/m 12,9 km/h (3 Bft) 97,87 %
16.07.2021 11:38 18,3 C 18,9 C 20,6 C 84 % 1022,2 hPa 0,0 l/m 0 min 0 min 220 W/m 16,1 km/h (3 Bft) 97,92 %
16.07.2021 11:40 18,3 C 18,9 C 20,0 C 84 % 1022,2 hPa 0,0 l/m 0 min 0 min 212 W/m 16,1 km/h (3 Bft) 97,87 %
16.07.2021 11:42 18,3 C 18,3 C 20,0 C 84 % 1022,3 hPa 0,0 l/m 0 min 0 min 197 W/m 19,3 km/h (3 Bft) 97,83 %
16.07.2021 11:44 18,3 C 18,3 C 20,0 C 84 % 1022,4 hPa 0,0 l/m 0 min 0 min 200 W/m 12,9 km/h (3 Bft) 97,87 %
16.07.2021 11:46 18,3 C 18,3 C 20,0 C 84 % 1022,4 hPa 0,0 l/m 0 min 0 min 212 W/m 12,9 km/h (3 Bft) 97,87 %
16.07.2021 11:48 18,3 C 18,3 C 20,0 C 83 % 1022,4 hPa 0,0 l/m 0 min 0 min 238 W/m 16,1 km/h (3 Bft) 97,87 %
16.07.2021 11:50 18,3 C 18,3 C 20,0 C 84 % 1022,4 hPa 0,0 l/m 0 min 0 min 268 W/m 9,7 km/h (2 Bft) 97,87 %
16.07.2021 11:52 18,3 C 18,3 C 20,0 C 84 % 1022,4 hPa 0,0 l/m 0 min 0 min 283 W/m 9,7 km/h (2 Bft) 95,74 %
16.07.2021 11:54 18,3 C 18,9 C 20,0 C 84 % 1022,4 hPa 0,0 l/m 0 min 0 min 255 W/m 12,9 km/h (3 Bft) 97,83 %
16.07.2021 11:56 18,4 C 18,9 C 20,0 C 84 % 1022,4 hPa 0,0 l/m 0 min 0 min 215 W/m 12,9 km/h (3 Bft) 95,74 %
16.07.2021 11:58 18,4 C 18,9 C 20,0 C 84 % 1022,4 hPa 0,0 l/m 0 min 0 min 198 W/m 12,9 km/h (3 Bft) 100,00 %
16.07.2021 12:00 18,4 C 18,9 C 20,0 C 84 % 1022,4 hPa 0,0 l/m 0 min 0 min 208 W/m 9,7 km/h (2 Bft) 100,00 %
16.07.2021 12:02 18,4 C 18,3 C 20,0 C 84 % 1022,4 hPa 0,0 l/m 0 min 0 min 217 W/m 19,3 km/h (3 Bft) 100,00 %
16.07.2021 12:04 18,4 C 18,3 C 19,5 C 84 % 1022,4 hPa 0,0 l/m 0 min 0 min 214 W/m 19,3 km/h (3 Bft) 100,00 %
16.07.2021 12:08 18,4 C 18,3 C 19,5 C 84 % 1022,4 hPa 0,0 l/m 0 min 0 min 214 W/m 9,7 km/h (2 Bft) 100,00 %
16.07.2021 12:10 18,3 C 17,8 C 19,5 C 84 % 1022,5 hPa 0,0 l/m 0 min 0 min 192 W/m 12,9 km/h (3 Bft) 100,00 %
16.07.2021 12:12 18,3 C 17,8 C 19,5 C 84 % 1022,5 hPa 0,0 l/m 0 min 0 min 186 W/m 12,9 km/h (3 Bft) 100,00 %
16.07.2021 12:14 18,3 C 17,8 C 19,5 C 84 % 1022,5 hPa 0,0 l/m 0 min 0 min 194 W/m 12,9 km/h (3 Bft) 97,87 %
16.07.2021 12:16 18,2 C 17,8 C 19,5 C 84 % 1022,4 hPa 0,0 l/m 0 min 0 min 217 W/m 16,1 km/h (3 Bft) 95,74 %
16.07.2021 12:18 18,2 C 17,8 C 19,5 C 84 % 1022,4 hPa 0,0 l/m 0 min 0 min 242 W/m 19,3 km/h (3 Bft) 97,83 %
16.07.2021 12:20 18,1 C 18,3 C 18,9 C 84 % 1022,4 hPa 0,0 l/m 0 min 0 min 247 W/m 12,9 km/h (3 Bft) 100,00 %
16.07.2021 12:22 18,1 C 18,3 C 18,9 C 84 % 1022,4 hPa 0,0 l/m 0 min 0 min 232 W/m 12,9 km/h (3 Bft) 97,87 %
16.07.2021 12:24 18,1 C 18,3 C 18,9 C 84 % 1022,4 hPa 0,0 l/m 0 min 0 min 220 W/m 16,1 km/h (3 Bft) 91,84 %
16.07.2021 12:26 18,1 C 18,3 C 18,9 C 84 % 1022,5 hPa 0,0 l/m 0 min 0 min 232 W/m 12,9 km/h (3 Bft) 100,00 %
16.07.2021 12:28 18,1 C 18,3 C 18,9 C 84 % 1022,5 hPa 0,0 l/m 0 min 0 min 245 W/m 12,9 km/h (3 Bft) 95,74 %
16.07.2021 12:30 18,1 C 18,3 C 18,9 C 84 % 1022,4 hPa 0,0 l/m 0 min 0 min 287 W/m 16,1 km/h (3 Bft) 97,87 %
16.07.2021 12:32 18,1 C 18,3 C 19,5 C 84 % 1022,5 hPa 0,0 l/m 0 min 0 min 319 W/m 12,9 km/h (3 Bft) 95,74 %
16.07.2021 12:34 18,1 C 18,9 C 19,5 C 84 % 1022,5 hPa 0,0 l/m 0 min 0 min 331 W/m 12,9 km/h (3 Bft) 97,87 %
16.07.2021 12:36 18,2 C 18,9 C 19,5 C 84 % 1022,5 hPa 0,0 l/m 0 min 0 min 338 W/m 16,1 km/h (3 Bft) 97,87 %
16.07.2021 12:38 18,3 C 18,9 C 19,5 C 84 % 1022,4 hPa 0,0 l/m 0 min 0 min 341 W/m 19,3 km/h (3 Bft) 97,83 %
16.07.2021 12:40 18,3 C 18,9 C 19,5 C 84 % 1022,5 hPa 0,0 l/m 0 min 0 min 363 W/m 9,7 km/h (2 Bft) 97,87 %
16.07.2021 12:42 18,3 C 19,4 C 20,0 C 84 % 1022,5 hPa 0,0 l/m 0 min 0 min 403 W/m 12,9 km/h (3 Bft) 97,87 %
16.07.2021 12:44 18,4 C 19,4 C 20,0 C 84 % 1022,5 hPa 0,0 l/m 0 min 0 min 386 W/m 9,7 km/h (2 Bft) 97,87 %
16.07.2021 12:46 18,5 C 19,4 C 20,0 C 84 % 1022,5 hPa 0,0 l/m 0 min 0 min 322 W/m 19,3 km/h (3 Bft) 95,74 %
16.07.2021 12:48 18,5 C 18,9 C 19,5 C 83 % 1022,5 hPa 0,0 l/m 0 min 0 min 321 W/m 16,1 km/h (3 Bft) 97,83 %
16.07.2021 12:50 18,5 C 18,9 C 19,5 C 83 % 1022,5 hPa 0,0 l/m 0 min 0 min 361 W/m 12,9 km/h (3 Bft) 97,87 %
16.07.2021 12:52 18,5 C 18,9 C 19,5 C 83 % 1022,5 hPa 0,0 l/m 0 min 0 min 403 W/m 16,1 km/h (3 Bft) 97,87 %
16.07.2021 12:54 18,5 C 18,9 C 20,0 C 84 % 1022,5 hPa 0,0 l/m 0 min 0 min 406 W/m 16,1 km/h (3 Bft) 97,87 %
16.07.2021 12:56 18,5 C 19,4 C 20,0 C 84 % 1022,5 hPa 0,0 l/m 0 min 0 min 410 W/m 9,7 km/h (2 Bft) 97,87 %
16.07.2021 12:58 18,5 C 19,4 C 20,0 C 84 % 1022,5 hPa 0,0 l/m 2 min 0 min 439 W/m 16,1 km/h (3 Bft) 95,74 %
16.07.2021 13:00 18,6 C 19,4 C 20,0 C 83 % 1022,5 hPa 0,0 l/m 2 min 0 min 467 W/m 19,3 km/h (3 Bft) 100,00 %
16.07.2021 13:02 18,6 C 19,4 C 20,0 C 83 % 1022,5 hPa 0,0 l/m 2 min 0 min 517 W/m 22,5 km/h (4 Bft) 100,00 %
16.07.2021 13:04 18,7 C 19,4 C 20,0 C 83 % 1022,6 hPa 0,0 l/m 2 min 0 min 493 W/m 22,5 km/h (4 Bft) 100,00 %
16.07.2021 13:06 18,8 C 19,4 C 20,0 C 83 % 1022,6 hPa 0,0 l/m 2 min 0 min 442 W/m 12,9 km/h (3 Bft) 100,00 %
16.07.2021 13:08 18,8 C 19,4 C 20,0 C 82 % 1022,6 hPa 0,0 l/m 0 min 0 min 381 W/m 22,5 km/h (4 Bft) 100,00 %
16.07.2021 13:10 18,8 C 19,4 C 19,5 C 82 % 1022,7 hPa 0,0 l/m 0 min 0 min 359 W/m 19,3 km/h (3 Bft) 100,00 %
16.07.2021 13:12 18,8 C 19,4 C 19,5 C 82 % 1022,7 hPa 0,0 l/m 0 min 0 min 300 W/m 19,3 km/h (3 Bft) 100,00 %
16.07.2021 13:14 18,8 C 19,4 C 19,5 C 82 % 1022,6 hPa 0,0 l/m 0 min 0 min 314 W/m 16,1 km/h (3 Bft) 100,00 %
16.07.2021 13:16 18,8 C 19,4 C 19,5 C 82 % 1022,6 hPa 0,0 l/m 0 min 0 min 325 W/m 19,3 km/h (3 Bft) 97,87 %
16.07.2021 13:18 18,8 C 19,4 C 19,5 C 82 % 1022,6 hPa 0,0 l/m 0 min 0 min 343 W/m 12,9 km/h (3 Bft) 100,00 %
16.07.2021 13:20 18,8 C 19,4 C 19,5 C 83 % 1022,6 hPa 0,0 l/m 0 min 0 min 391 W/m 19,3 km/h (3 Bft) 97,87 %
16.07.2021 13:22 18,8 C 19,4 C 19,5 C 81 % 1022,6 hPa 0,0 l/m 2 min 0 min 451 W/m 22,5 km/h (4 Bft) 100,00 %
16.07.2021 13:24 18,8 C 19,4 C 19,5 C 82 % 1022,6 hPa 0,0 l/m 2 min 0 min 505 W/m 19,3 km/h (3 Bft) 100,00 %
16.07.2021 13:26 18,9 C 20,0 C 20,0 C 82 % 1022,7 hPa 0,0 l/m 2 min 0 min 520 W/m 9,7 km/h (2 Bft) 100,00 %
16.07.2021 13:28 18,9 C 20,0 C 20,0 C 82 % 1022,7 hPa 0,0 l/m 2 min 0 min 423 W/m 12,9 km/h (3 Bft) 100,00 %
16.07.2021 13:30 19,0 C 20,0 C 20,0 C 82 % 1022,7 hPa 0,0 l/m 0 min 0 min 370 W/m 9,7 km/h (2 Bft) 100,00 %
16.07.2021 13:32 19,0 C 20,0 C 20,0 C 82 % 1022,7 hPa 0,0 l/m 0 min 0 min 321 W/m 12,9 km/h (3 Bft) 97,87 %
16.07.2021 13:34 19,0 C 19,4 C 19,5 C 82 % 1022,7 hPa 0,0 l/m 0 min 0 min 277 W/m 19,3 km/h (3 Bft) 100,00 %
16.07.2021 13:36 19,0 C 19,4 C 19,5 C 82 % 1022,8 hPa 0,0 l/m 0 min 0 min 262 W/m 12,9 km/h (3 Bft) 100,00 %
16.07.2021 13:38 19,0 C 19,4 C 19,5 C 82 % 1022,8 hPa 0,0 l/m 0 min 0 min 238 W/m 3,2 km/h (1 Bft) 97,87 %
16.07.2021 13:40 19,0 C 19,4 C 19,5 C 82 % 1022,8 hPa 0,0 l/m 0 min 0 min 235 W/m 19,3 km/h (3 Bft) 100,00 %
16.07.2021 13:42 19,0 C 18,9 C 19,5 C 82 % 1022,8 hPa 0,0 l/m 0 min 0 min 266 W/m 12,9 km/h (3 Bft) 100,00 %
16.07.2021 13:44 19,0 C 18,9 C 19,5 C 82 % 1022,8 hPa 0,0 l/m 0 min 0 min 303 W/m 12,9 km/h (3 Bft) 100,00 %
16.07.2021 13:46 19,0 C 19,4 C 19,5 C 82 % 1022,7 hPa 0,0 l/m 0 min 0 min 325 W/m 16,1 km/h (3 Bft) 100,00 %
16.07.2021 13:48 19,0 C 19,4 C 19,5 C 82 % 1022,8 hPa 0,0 l/m 0 min 0 min 392 W/m 9,7 km/h (2 Bft) 100,00 %
16.07.2021 13:50 19,0 C 19,4 C 19,5 C 82 % 1022,8 hPa 0,0 l/m 2 min 0 min 459 W/m 16,1 km/h (3 Bft) 100,00 %
16.07.2021 13:52 19,0 C 19,4 C 19,5 C 82 % 1022,7 hPa 0,0 l/m 2 min 0 min 418 W/m 12,9 km/h (3 Bft) 100,00 %
16.07.2021 13:54 19,0 C 19,4 C 19,5 C 82 % 1022,7 hPa 0,0 l/m 0 min 0 min 349 W/m 19,3 km/h (3 Bft) 100,00 %
16.07.2021 13:56 19,0 C 19,4 C 19,5 C 82 % 1022,7 hPa 0,0 l/m 0 min 0 min 334 W/m 19,3 km/h (3 Bft) 100,00 %
16.07.2021 13:58 19,0 C 19,4 C 19,5 C 82 % 1022,7 hPa 0,0 l/m 0 min 0 min 338 W/m 12,9 km/h (3 Bft) 100,00 %
16.07.2021 14:00 19,0 C 20,0 C 19,5 C 83 % 1022,6 hPa 0,0 l/m 0 min 0 min 357 W/m 12,9 km/h (3 Bft) 100,00 %
16.07.2021 14:02 19,1 C 20,0 C 19,5 C 82 % 1022,7 hPa 0,0 l/m 0 min 0 min 383 W/m 19,3 km/h (3 Bft) 100,00 %
16.07.2021 14:04 19,1 C 19,4 C 19,5 C 82 % 1022,6 hPa 0,0 l/m 2 min 0 min 419 W/m 6,4 km/h (2 Bft) 100,00 %
16.07.2021 14:06 19,1 C 19,4 C 19,5 C 82 % 1022,7 hPa 0,0 l/m 0 min 0 min 410 W/m 25,7 km/h (4 Bft) 100,00 %
16.07.2021 14:08 19,1 C 20,0 C 19,5 C 82 % 1022,7 hPa 0,0 l/m 2 min 0 min 424 W/m 16,1 km/h (3 Bft) 100,00 %
16.07.2021 14:10 19,1 C 20,0 C 19,5 C 82 % 1022,7 hPa 0,0 l/m 2 min 0 min 433 W/m 16,1 km/h (3 Bft) 100,00 %
16.07.2021 14:12 19,2 C 20,0 C 19,5 C 81 % 1022,7 hPa 0,0 l/m 2 min 0 min 457 W/m 9,7 km/h (2 Bft) 97,83 %
16.07.2021 14:14 19,2 C 20,0 C 20,0 C 82 % 1022,7 hPa 0,0 l/m 2 min 0 min 434 W/m 16,1 km/h (3 Bft) 100,00 %
16.07.2021 14:16 19,3 C 20,6 C 20,0 C 82 % 1022,8 hPa 0,0 l/m 0 min 0 min 340 W/m 9,7 km/h (2 Bft) 100,00 %
16.07.2021 14:18 19,3 C 20,0 C 19,5 C 81 % 1022,8 hPa 0,0 l/m 0 min 0 min 258 W/m 12,9 km/h (3 Bft) 97,87 %
16.07.2021 14:20 19,3 C 20,0 C 19,5 C 81 % 1022,8 hPa 0,0 l/m 0 min 0 min 198 W/m 19,3 km/h (3 Bft) 97,87 %
16.07.2021 14:22 19,3 C 19,4 C 18,9 C 81 % 1022,9 hPa 0,0 l/m 0 min 0 min 163 W/m 9,7 km/h (2 Bft) 97,87 %
16.07.2021 14:24 19,3 C 19,4 C 18,9 C 81 % 1022,9 hPa 0,0 l/m 0 min 0 min 134 W/m 19,3 km/h (3 Bft) 100,00 %
16.07.2021 14:26 19,3 C 18,9 C 18,9 C 81 % 1022,9 hPa 0,0 l/m 0 min 0 min 145 W/m 16,1 km/h (3 Bft) 100,00 %
16.07.2021 14:28 19,1 C 18,9 C 18,4 C 80 % 1022,9 hPa 0,0 l/m 0 min 0 min 167 W/m 16,1 km/h (3 Bft) 100,00 %
16.07.2021 14:30 19,0 C 18,9 C 18,4 C 80 % 1022,9 hPa 0,0 l/m 0 min 0 min 190 W/m 12,9 km/h (3 Bft) 97,87 %
16.07.2021 14:32 19,0 C 18,9 C 18,4 C 81 % 1022,9 hPa 0,0 l/m 0 min 0 min 216 W/m 16,1 km/h (3 Bft) 97,87 %
16.07.2021 14:34 19,0 C 18,9 C 18,4 C 81 % 1022,9 hPa 0,0 l/m 0 min 0 min 238 W/m 22,5 km/h (4 Bft) 97,87 %
16.07.2021 14:36 19,0 C 18,9 C 18,4 C 81 % 1022,9 hPa 0,0 l/m 0 min 0 min 254 W/m 12,9 km/h (3 Bft) 97,83 %
16.07.2021 14:38 18,9 C 18,9 C 18,4 C 81 % 1023,0 hPa 0,0 l/m 0 min 0 min 232 W/m 22,5 km/h (4 Bft) 97,87 %
16.07.2021 14:40 18,9 C 18,9 C 18,4 C 81 % 1023,0 hPa 0,0 l/m 0 min 0 min 211 W/m 16,1 km/h (3 Bft) 97,87 %
16.07.2021 14:42 18,9 C 18,9 C 18,4 C 80 % 1023,0 hPa 0,0 l/m 0 min 0 min 193 W/m 19,3 km/h (3 Bft) 97,87 %
16.07.2021 14:44 18,9 C 18,9 C 18,4 C 80 % 1023,0 hPa 0,0 l/m 0 min 0 min 209 W/m 16,1 km/h (3 Bft) 95,74 %
16.07.2021 14:46 18,9 C 18,9 C 18,4 C 80 % 1023,0 hPa 0,0 l/m 0 min 0 min 263 W/m 9,7 km/h (2 Bft) 93,62 %
16.07.2021 14:48 18,9 C 19,4 C 18,4 C 81 % 1023,0 hPa 0,0 l/m 0 min 0 min 285 W/m 16,1 km/h (3 Bft) 95,65 %
16.07.2021 14:50 18,9 C 19,4 C 18,9 C 81 % 1023,0 hPa 0,0 l/m 0 min 0 min 273 W/m 9,7 km/h (2 Bft) 93,62 %
16.07.2021 14:52 19,0 C 19,4 C 18,9 C 81 % 1023,0 hPa 0,0 l/m 0 min 0 min 261 W/m 12,9 km/h (3 Bft) 95,74 %
16.07.2021 14:54 19,0 C 19,4 C 18,9 C 81 % 1023,0 hPa 0,0 l/m 0 min 0 min 247 W/m 9,7 km/h (2 Bft) 95,74 %
16.07.2021 14:56 19,0 C 19,4 C 18,9 C 81 % 1023,1 hPa 0,0 l/m 0 min 0 min 229 W/m 12,9 km/h (3 Bft) 95,74 %
16.07.2021 14:58 19,0 C 19,4 C 18,9 C 81 % 1023,1 hPa 0,0 l/m 0 min 0 min 211 W/m 16,1 km/h (3 Bft) 95,74 %
16.07.2021 15:00 19,0 C 19,4 C 18,4 C 80 % 1023,0 hPa 0,0 l/m 0 min 0 min 213 W/m 16,1 km/h (3 Bft) 95,65 %
16.07.2021 15:02 19,0 C 19,4 C 18,9 C 81 % 1023,0 hPa 0,0 l/m 0 min 0 min 225 W/m 9,7 km/h (2 Bft) 95,74 %
16.07.2021 15:04 19,0 C 19,4 C 18,9 C 80 % 1022,9 hPa 0,0 l/m 0 min 0 min 232 W/m 9,7 km/h (2 Bft) 93,62 %
16.07.2021 15:06 19,0 C 19,4 C 18,4 C 80 % 1023,0 hPa 0,0 l/m 0 min 0 min 216 W/m 19,3 km/h (3 Bft) 95,74 %
16.07.2021 15:08 19,1 C 19,4 C 18,4 C 81 % 1023,0 hPa 0,0 l/m 0 min 0 min 204 W/m 9,7 km/h (2 Bft) 95,74 %
16.07.2021 15:10 19,1 C 19,4 C 18,4 C 81 % 1023,0 hPa 0,0 l/m 0 min 0 min 198 W/m 12,9 km/h (3 Bft) 95,65 %
16.07.2021 15:12 19,1 C 18,9 C 18,4 C 81 % 1023,0 hPa 0,0 l/m 0 min 0 min 214 W/m 12,9 km/h (3 Bft) 93,62 %
16.07.2021 15:14 19,1 C 18,9 C 18,9 C 81 % 1022,9 hPa 0,0 l/m 0 min 0 min 253 W/m 12,9 km/h (3 Bft) 95,74 %
16.07.2021 15:16 19,1 C 19,4 C 18,9 C 80 % 1022,9 hPa 0,0 l/m 0 min 0 min 281 W/m 12,9 km/h (3 Bft) 95,74 %
16.07.2021 15:18 19,1 C 19,4 C 18,9 C 81 % 1023,0 hPa 0,0 l/m 0 min 0 min 305 W/m 16,1 km/h (3 Bft) 95,74 %
16.07.2021 15:20 19,1 C 19,4 C 18,9 C 81 % 1023,0 hPa 0,0 l/m 0 min 0 min 325 W/m 9,7 km/h (2 Bft) 91,49 %
16.07.2021 15:22 19,2 C 20,0 C 18,9 C 81 % 1023,0 hPa 0,0 l/m 0 min 0 min 319 W/m 6,4 km/h (2 Bft) 93,48 %
16.07.2021 15:24 19,2 C 20,0 C 18,9 C 81 % 1023,1 hPa 0,0 l/m 0 min 0 min 270 W/m 9,7 km/h (2 Bft) 93,62 %
16.07.2021 15:26 19,3 C 20,0 C 18,9 C 81 % 1023,0 hPa 0,0 l/m 0 min 0 min 248 W/m 12,9 km/h (3 Bft) 93,62 %
16.07.2021 15:28 19,3 C 20,0 C 18,9 C 81 % 1023,0 hPa 0,0 l/m 0 min 0 min 237 W/m 9,7 km/h (2 Bft) 95,74 %
16.07.2021 15:30 19,4 C 20,0 C 18,9 C 81 % 1023,0 hPa 0,0 l/m 0 min 0 min 247 W/m 9,7 km/h (2 Bft) 95,74 %
16.07.2021 15:32 19,4 C 20,0 C 18,9 C 80 % 1023,0 hPa 0,0 l/m 0 min 0 min 270 W/m 9,7 km/h (2 Bft) 97,87 %
16.07.2021 15:34 19,4 C 20,0 C 18,9 C 80 % 1023,0 hPa 0,0 l/m 0 min 0 min 294 W/m 16,1 km/h (3 Bft) 97,83 %
16.07.2021 15:36 19,5 C 20,0 C 19,5 C 80 % 1023,1 hPa 0,0 l/m 0 min 0 min 331 W/m 12,9 km/h (3 Bft) 97,87 %
16.07.2021 15:38 19,5 C 20,0 C 19,5 C 81 % 1023,1 hPa 0,0 l/m 0 min 0 min 322 W/m 12,9 km/h (3 Bft) 97,87 %
16.07.2021 15:40 19,5 C 20,0 C 19,5 C 80 % 1023,1 hPa 0,0 l/m 0 min 0 min 275 W/m 12,9 km/h (3 Bft) 95,74 %
16.07.2021 15:42 19,6 C 20,0 C 18,9 C 80 % 1023,2 hPa 0,0 l/m 0 min 0 min 229 W/m 6,4 km/h (2 Bft) 93,62 %
16.07.2021 15:44 19,6 C 20,0 C 18,9 C 80 % 1023,1 hPa 0,0 l/m 0 min 0 min 205 W/m 6,4 km/h (2 Bft) 97,87 %
16.07.2021 15:46 19,6 C 20,0 C 18,9 C 80 % 1023,1 hPa 0,0 l/m 0 min 0 min 204 W/m 9,7 km/h (2 Bft) 97,83 %
16.07.2021 15:48 19,6 C 20,0 C 18,9 C 79 % 1023,1 hPa 0,0 l/m 0 min 0 min 185 W/m 9,7 km/h (2 Bft) 97,87 %
16.07.2021 15:50 19,6 C 19,4 C 18,9 C 80 % 1023,1 hPa 0,0 l/m 0 min 0 min 162 W/m 3,2 km/h (1 Bft) 100,00 %
16.07.2021 15:52 19,6 C 19,4 C 18,9 C 79 % 1023,2 hPa 0,0 l/m 0 min 0 min 144 W/m 9,7 km/h (2 Bft) 95,74 %
16.07.2021 15:54 19,6 C 19,4 C 18,9 C 80 % 1023,1 hPa 0,0 l/m 0 min 0 min 131 W/m 12,9 km/h (3 Bft) 97,87 %
16.07.2021 15:56 19,6 C 19,4 C 18,9 C 80 % 1023,1 hPa 0,0 l/m 0 min 0 min 125 W/m 12,9 km/h (3 Bft) 95,74 %
16.07.2021 15:58 19,6 C 19,4 C 18,4 C 80 % 1023,1 hPa 0,0 l/m 0 min 0 min 130 W/m 6,4 km/h (2 Bft) 97,83 %
16.07.2021 16:00 19,6 C 19,4 C 18,4 C 80 % 1023,1 hPa 0,0 l/m 0 min 0 min 148 W/m 9,7 km/h (2 Bft) 97,87 %
16.07.2021 16:02 19,5 C 19,4 C 18,9 C 81 % 1023,1 hPa 0,0 l/m 0 min 0 min 160 W/m 9,7 km/h (2 Bft) 95,74 %
16.07.2021 16:04 19,5 C 19,4 C 18,9 C 81 % 1023,1 hPa 0,0 l/m 0 min 0 min 157 W/m 9,7 km/h (2 Bft) 97,87 %
16.07.2021 16:06 19,5 C 19,4 C 18,4 C 81 % 1023,1 hPa 0,0 l/m 0 min 0 min 140 W/m 6,4 km/h (2 Bft) 97,87 %
16.07.2021 16:08 19,5 C 19,4 C 18,4 C 81 % 1023,1 hPa 0,0 l/m 0 min 0 min 135 W/m 12,9 km/h (3 Bft) 97,87 %
16.07.2021 16:10 19,5 C 19,4 C 18,4 C 81 % 1023,0 hPa 0,0 l/m 0 min 0 min 149 W/m 12,9 km/h (3 Bft) 97,83 %
16.07.2021 16:12 19,5 C 19,4 C 18,4 C 81 % 1023,0 hPa 0,0 l/m 0 min 0 min 174 W/m 12,9 km/h (3 Bft) 97,87 %
16.07.2021 16:14 19,5 C 19,4 C 18,4 C 81 % 1023,0 hPa 0,0 l/m 0 min 0 min 225 W/m 12,9 km/h (3 Bft) 97,87 %
16.07.2021 16:16 19,5 C 19,4 C 18,9 C 81 % 1023,0 hPa 0,0 l/m 0 min 0 min 279 W/m 12,9 km/h (3 Bft) 95,74 %
16.07.2021 16:18 19,5 C 20,0 C 18,9 C 81 % 1023,0 hPa 0,0 l/m 0 min 0 min 326 W/m 6,4 km/h (2 Bft) 97,87 %
16.07.2021 16:20 19,5 C 20,0 C 18,9 C 81 % 1023,0 hPa 0,0 l/m 0 min 0 min 335 W/m 12,9 km/h (3 Bft) 97,87 %
16.07.2021 16:22 19,5 C 20,0 C 18,9 C 80 % 1023,1 hPa 0,0 l/m 0 min 0 min 308 W/m 16,1 km/h (3 Bft) 95,65 %
16.07.2021 16:24 19,6 C 20,6 C 18,9 C 80 % 1023,1 hPa 0,0 l/m 0 min 0 min 288 W/m 12,9 km/h (3 Bft) 95,74 %
16.07.2021 16:26 19,6 C 20,6 C 19,5 C 79 % 1023,1 hPa 0,0 l/m 0 min 0 min 274 W/m 12,9 km/h (3 Bft) 97,87 %
16.07.2021 16:28 19,6 C 20,6 C 19,5 C 79 % 1023,1 hPa 0,0 l/m 0 min 0 min 264 W/m 16,1 km/h (3 Bft) 97,87 %
16.07.2021 16:30 19,7 C 20,0 C 19,5 C 79 % 1023,1 hPa 0,0 l/m 0 min 0 min 226 W/m 6,4 km/h (2 Bft) 97,87 %
16.07.2021 16:32 19,8 C 20,0 C 18,9 C 79 % 1023,1 hPa 0,0 l/m 0 min 0 min 203 W/m 12,9 km/h (3 Bft) 97,87 %
16.07.2021 16:36 19,8 C 20,0 C 18,9 C 79 % 1023,1 hPa 0,0 l/m 0 min 0 min 193 W/m 12,9 km/h (3 Bft) 97,96 %
16.07.2021 16:38 19,8 C 20,0 C 18,9 C 79 % 1023,0 hPa 0,0 l/m 0 min 0 min 202 W/m 16,1 km/h (3 Bft) 100,00 %
16.07.2021 16:40 19,8 C 20,0 C 18,9 C 78 % 1023,0 hPa 0,0 l/m 0 min 0 min 218 W/m 9,7 km/h (2 Bft) 100,00 %
16.07.2021 16:42 19,8 C 20,0 C 18,9 C 77 % 1023,0 hPa 0,0 l/m 0 min 0 min 232 W/m 16,1 km/h (3 Bft) 97,87 %
16.07.2021 16:44 19,8 C 20,0 C 18,9 C 77 % 1023,0 hPa 0,0 l/m 0 min 0 min 242 W/m 16,1 km/h (3 Bft) 100,00 %
16.07.2021 16:46 19,8 C 20,0 C 18,9 C 77 % 1023,0 hPa 0,0 l/m 0 min 0 min 263 W/m 12,9 km/h (3 Bft) 100,00 %
16.07.2021 16:48 19,8 C 20,0 C 18,9 C 77 % 1023,0 hPa 0,0 l/m 0 min 0 min 288 W/m 16,1 km/h (3 Bft) 97,87 %
16.07.2021 16:50 19,8 C 20,0 C 18,9 C 77 % 1022,9 hPa 0,0 l/m 0 min 0 min 231 W/m 12,9 km/h (3 Bft) 100,00 %
16.07.2021 16:52 19,8 C 20,0 C 18,9 C 78 % 1023,0 hPa 0,0 l/m 0 min 0 min 186 W/m 16,1 km/h (3 Bft) 100,00 %
16.07.2021 16:54 19,8 C 20,0 C 18,9 C 78 % 1023,0 hPa 0,0 l/m 0 min 0 min 176 W/m 19,3 km/h (3 Bft) 100,00 %
16.07.2021 16:56 19,8 C 19,4 C 18,9 C 79 % 1023,0 hPa 0,0 l/m 0 min 0 min 224 W/m 19,3 km/h (3 Bft) 100,00 %
16.07.2021 16:58 19,8 C 20,0 C 18,9 C 79 % 1023,0 hPa 0,0 l/m 0 min 0 min 284 W/m 16,1 km/h (3 Bft) 100,00 %
16.07.2021 17:00 19,8 C 20,0 C 18,9 C 79 % 1023,0 hPa 0,0 l/m 0 min 0 min 279 W/m 25,7 km/h (4 Bft) 100,00 %
16.07.2021 17:02 19,8 C 20,0 C 18,9 C 79 % 1023,0 hPa 0,0 l/m 0 min 0 min 315 W/m 22,5 km/h (4 Bft) 97,87 %
16.07.2021 17:04 19,8 C 20,0 C 18,9 C 79 % 1023,0 hPa 0,0 l/m 0 min 0 min 260 W/m 19,3 km/h (3 Bft) 100,00 %
16.07.2021 17:06 19,8 C 20,0 C 18,9 C 79 % 1023,0 hPa 0,0 l/m 0 min 0 min 234 W/m 16,1 km/h (3 Bft) 100,00 %
16.07.2021 17:08 19,8 C 20,0 C 18,9 C 79 % 1023,0 hPa 0,0 l/m 0 min 0 min 219 W/m 12,9 km/h (3 Bft) 100,00 %
16.07.2021 17:10 19,8 C 20,0 C 18,9 C 79 % 1022,9 hPa 0,0 l/m 0 min 0 min 194 W/m 16,1 km/h (3 Bft) 100,00 %
16.07.2021 17:12 19,8 C 20,0 C 18,9 C 79 % 1022,9 hPa 0,0 l/m 0 min 0 min 263 W/m 12,9 km/h (3 Bft) 100,00 %
16.07.2021 17:14 19,8 C 20,0 C 18,9 C 79 % 1022,9 hPa 0,0 l/m 0 min 0 min 289 W/m 16,1 km/h (3 Bft) 100,00 %
16.07.2021 17:16 19,8 C 20,6 C 18,9 C 79 % 1022,9 hPa 0,0 l/m 0 min 0 min 255 W/m 12,9 km/h (3 Bft) 100,00 %
16.07.2021 17:18 19,8 C 21,1 C 18,9 C 79 % 1022,9 hPa 0,0 l/m 2 min 0 min 335 W/m 16,1 km/h (3 Bft) 100,00 %
16.07.2021 17:20 19,9 C 22,8 C 19,5 C 80 % 1022,9 hPa 0,0 l/m 2 min 0 min 535 W/m 19,3 km/h (3 Bft) 97,83 %
16.07.2021 17:22 20,0 C 23,9 C 19,5 C 80 % 1022,8 hPa 0,0 l/m 2 min 0 min 584 W/m 16,1 km/h (3 Bft) 97,87 %
16.07.2021 17:24 20,1 C 22,8 C 19,5 C 79 % 1022,8 hPa 0,0 l/m 2 min 0 min 515 W/m 16,1 km/h (3 Bft) 97,87 %
16.07.2021 17:26 20,2 C 23,3 C 19,5 C 79 % 1022,9 hPa 0,0 l/m 0 min 0 min 290 W/m 6,4 km/h (2 Bft) 95,74 %
16.07.2021 17:28 20,3 C 23,3 C 19,5 C 78 % 1022,9 hPa 0,0 l/m 0 min 0 min 276 W/m 16,1 km/h (3 Bft) 97,87 %
16.07.2021 17:30 20,3 C 22,2 C 19,5 C 78 % 1022,9 hPa 0,0 l/m 0 min 0 min 217 W/m 12,9 km/h (3 Bft) 97,87 %
16.07.2021 17:32 20,4 C 21,7 C 19,5 C 78 % 1023,0 hPa 0,0 l/m 0 min 0 min 213 W/m 16,1 km/h (3 Bft) 97,83 %
16.07.2021 17:34 20,4 C 21,1 C 19,5 C 78 % 1023,0 hPa 0,0 l/m 0 min 0 min 212 W/m 16,1 km/h (3 Bft) 95,74 %
16.07.2021 17:36 20,4 C 20,6 C 19,5 C 78 % 1023,0 hPa 0,0 l/m 0 min 0 min 190 W/m 12,9 km/h (3 Bft) 95,74 %
16.07.2021 17:38 20,4 C 20,6 C 18,9 C 78 % 1023,0 hPa 0,0 l/m 0 min 0 min 185 W/m 16,1 km/h (3 Bft) 97,87 %
16.07.2021 17:40 20,4 C 20,6 C 18,9 C 78 % 1023,0 hPa 0,0 l/m 0 min 0 min 174 W/m 12,9 km/h (3 Bft) 97,14 %
16.07.2021 17:42 20,4 C 20,0 C 18,9 C 78 % 1023,0 hPa 0,0 l/m 0 min 0 min 162 W/m 9,7 km/h (2 Bft) 97,87 %
16.07.2021 17:44 20,4 C 20,0 C 18,9 C 78 % 1023,1 hPa 0,0 l/m 0 min 0 min 178 W/m 19,3 km/h (3 Bft) 95,74 %
16.07.2021 17:46 20,4 C 20,0 C 18,9 C 79 % 1023,1 hPa 0,0 l/m 0 min 0 min 168 W/m 9,7 km/h (2 Bft) 97,87 %
16.07.2021 17:48 20,3 C 20,0 C 18,9 C 79 % 1023,0 hPa 0,0 l/m 0 min 0 min 165 W/m 9,7 km/h (2 Bft) 97,83 %
16.07.2021 17:50 20,1 C 20,0 C 18,9 C 79 % 1023,0 hPa 0,0 l/m 0 min 0 min 157 W/m 9,7 km/h (2 Bft) 97,87 %
16.07.2021 17:52 20,1 C 20,0 C 18,9 C 80 % 1023,0 hPa 0,0 l/m 0 min 0 min 160 W/m 6,4 km/h (2 Bft) 95,74 %
16.07.2021 17:54 20,0 C 19,4 C 18,9 C 80 % 1023,0 hPa 0,0 l/m 0 min 0 min 170 W/m 6,4 km/h (2 Bft) 95,74 %
16.07.2021 17:56 20,0 C 20,0 C 18,9 C 80 % 1023,0 hPa 0,0 l/m 0 min 0 min 196 W/m 9,7 km/h (2 Bft) 95,74 %
16.07.2021 17:58 20,0 C 20,0 C 18,9 C 79 % 1023,0 hPa 0,0 l/m 0 min 0 min 231 W/m 12,9 km/h (3 Bft) 100,00 %
16.07.2021 18:00 20,0 C 20,6 C 18,9 C 79 % 1023,0 hPa 0,0 l/m 2 min 0 min 425 W/m 12,9 km/h (3 Bft) 97,83 %
16.07.2021 18:02 20,0 C 20,6 C 18,9 C 79 % 1023,0 hPa 0,0 l/m 0 min 0 min 227 W/m 9,7 km/h (2 Bft) 97,87 %
16.07.2021 18:04 20,0 C 20,6 C 18,9 C 78 % 1023,0 hPa 0,0 l/m 0 min 0 min 213 W/m 19,3 km/h (3 Bft) 95,74 %
16.07.2021 18:08 20,1 C 20,6 C 18,9 C 78 % 1022,9 hPa 0,0 l/m 0 min 0 min 187 W/m 9,7 km/h (2 Bft) 100,00 %
16.07.2021 18:10 20,1 C 20,0 C 18,9 C 78 % 1022,9 hPa 0,0 l/m 0 min 0 min 159 W/m 16,1 km/h (3 Bft) 97,87 %
16.07.2021 18:12 20,1 C 20,0 C 18,9 C 78 % 1022,9 hPa 0,0 l/m 0 min 0 min 162 W/m 9,7 km/h (2 Bft) 96,00 %
16.07.2021 18:18 20,1 C 20,6 C 18,9 C 78 % 1022,9 hPa 0,0 l/m 0 min 0 min 203 W/m 12,9 km/h (3 Bft) 100,00 %
16.07.2021 18:20 20,1 C 21,1 C 18,9 C 78 % 1022,9 hPa 0,0 l/m 2 min 0 min 287 W/m 16,1 km/h (3 Bft) 97,14 %
16.07.2021 18:22 20,2 C 22,2 C 19,5 C 78 % 1022,9 hPa 0,0 l/m 2 min 0 min 265 W/m 9,7 km/h (2 Bft) 95,74 %
16.07.2021 18:24 20,3 C 21,7 C 19,5 C 78 % 1022,9 hPa 0,0 l/m 0 min 0 min 220 W/m 12,9 km/h (3 Bft) 97,83 %
16.07.2021 18:26 20,3 C 21,1 C 18,9 C 77 % 1022,9 hPa 0,0 l/m 0 min 0 min 186 W/m 16,1 km/h (3 Bft) 97,87 %
16.07.2021 18:28 20,3 C 20,6 C 18,9 C 77 % 1022,9 hPa 0,0 l/m 0 min 0 min 197 W/m 16,1 km/h (3 Bft) 97,87 %
16.07.2021 18:30 20,3 C 20,6 C 18,9 C 77 % 1023,0 hPa 0,0 l/m 0 min 0 min 216 W/m 6,4 km/h (2 Bft) 97,87 %
16.07.2021 18:32 20,3 C 20,0 C 18,9 C 77 % 1023,0 hPa 0,0 l/m 2 min 0 min 221 W/m 12,9 km/h (3 Bft) 97,87 %
16.07.2021 18:34 20,2 C 20,0 C 18,9 C 77 % 1023,0 hPa 0,0 l/m 0 min 0 min 214 W/m 12,9 km/h (3 Bft) 95,74 %
16.07.2021 18:36 20,2 C 20,0 C 18,9 C 77 % 1023,0 hPa 0,0 l/m 0 min 0 min 199 W/m 12,9 km/h (3 Bft) 97,83 %
16.07.2021 18:38 20,2 C 20,0 C 18,9 C 77 % 1023,0 hPa 0,0 l/m 0 min 0 min 196 W/m 9,7 km/h (2 Bft) 97,87 %
16.07.2021 18:40 20,2 C 20,0 C 18,9 C 77 % 1023,0 hPa 0,0 l/m 0 min 0 min 194 W/m 9,7 km/h (2 Bft) 97,87 %
16.07.2021 18:42 20,2 C 20,0 C 18,9 C 77 % 1023,0 hPa 0,0 l/m 0 min 0 min 177 W/m 9,7 km/h (2 Bft) 97,87 %
16.07.2021 18:44 20,2 C 20,0 C 18,9 C 77 % 1023,0 hPa 0,0 l/m 0 min 0 min 168 W/m 9,7 km/h (2 Bft) 97,87 %
16.07.2021 18:46 20,2 C 20,0 C 18,9 C 78 % 1023,0 hPa 0,0 l/m 0 min 0 min 159 W/m 9,7 km/h (2 Bft) 100,00 %
16.07.2021 18:48 20,2 C 20,0 C 18,9 C 77 % 1023,1 hPa 0,0 l/m 0 min 0 min 154 W/m 12,9 km/h (3 Bft) 100,00 %
16.07.2021 18:50 20,1 C 20,0 C 18,9 C 77 % 1023,1 hPa 0,0 l/m 0 min 0 min 149 W/m 12,9 km/h (3 Bft) 97,87 %
16.07.2021 18:52 20,1 C 20,0 C 18,9 C 77 % 1023,1 hPa 0,0 l/m 0 min 0 min 141 W/m 6,4 km/h (2 Bft) 100,00 %
16.07.2021 18:54 20,1 C 20,0 C 18,9 C 77 % 1023,1 hPa 0,0 l/m 0 min 0 min 142 W/m 12,9 km/h (3 Bft) 100,00 %
16.07.2021 18:56 20,1 C 20,0 C 18,9 C 77 % 1023,1 hPa 0,0 l/m 0 min 0 min 144 W/m 9,7 km/h (2 Bft) 100,00 %
16.07.2021 18:58 20,1 C 20,0 C 18,9 C 78 % 1023,1 hPa 0,0 l/m 0 min 0 min 141 W/m 9,7 km/h (2 Bft) 100,00 %
16.07.2021 19:00 20,1 C 20,0 C 18,9 C 78 % 1023,1 hPa 0,0 l/m 0 min 0 min 133 W/m 6,4 km/h (2 Bft) 100,00 %
16.07.2021 19:02 20,1 C 20,0 C 18,9 C 78 % 1023,1 hPa 0,0 l/m 0 min 0 min 133 W/m 9,7 km/h (2 Bft) 100,00 %
16.07.2021 19:04 20,1 C 20,0 C 18,9 C 78 % 1023,1 hPa 0,0 l/m 0 min 0 min 135 W/m 9,7 km/h (2 Bft) 100,00 %
16.07.2021 19:06 20,2 C 20,0 C 18,9 C 79 % 1023,1 hPa 0,0 l/m 0 min 0 min 142 W/m 9,7 km/h (2 Bft) 100,00 %
16.07.2021 19:08 20,1 C 20,0 C 18,4 C 78 % 1023,1 hPa 0,0 l/m 0 min 0 min 141 W/m 12,9 km/h (3 Bft) 100,00 %
16.07.2021 19:10 20,1 C 20,0 C 18,4 C 78 % 1023,1 hPa 0,0 l/m 0 min 0 min 137 W/m 16,1 km/h (3 Bft) 97,87 %
16.07.2021 19:12 20,1 C 20,0 C 18,4 C 77 % 1023,0 hPa 0,0 l/m 0 min 0 min 130 W/m 12,9 km/h (3 Bft) 100,00 %
16.07.2021 19:14 20,1 C 20,0 C 18,4 C 77 % 1023,0 hPa 0,0 l/m 0 min 0 min 138 W/m 9,7 km/h (2 Bft) 97,87 %
16.07.2021 19:16 20,1 C 20,0 C 18,4 C 78 % 1023,1 hPa 0,0 l/m 0 min 0 min 136 W/m 9,7 km/h (2 Bft) 100,00 %
16.07.2021 19:18 20,1 C 20,0 C 18,4 C 77 % 1023,1 hPa 0,0 l/m 0 min 0 min 113 W/m 22,5 km/h (4 Bft) 100,00 %
16.07.2021 19:20 20,0 C 20,0 C 18,4 C 77 % 1023,1 hPa 0,0 l/m 0 min 0 min 107 W/m 19,3 km/h (3 Bft) 97,87 %
16.07.2021 19:22 20,0 C 19,4 C 18,4 C 77 % 1023,1 hPa 0,0 l/m 0 min 0 min 120 W/m 9,7 km/h (2 Bft) 100,00 %
16.07.2021 19:24 20,0 C 20,0 C 18,4 C 77 % 1023,1 hPa 0,0 l/m 0 min 0 min 142 W/m 12,9 km/h (3 Bft) 100,00 %
16.07.2021 19:26 20,0 C 20,0 C 18,4 C 77 % 1023,1 hPa 0,0 l/m 2 min 0 min 173 W/m 12,9 km/h (3 Bft) 100,00 %
16.07.2021 19:28 20,0 C 20,0 C 18,4 C 77 % 1023,1 hPa 0,0 l/m 2 min 0 min 204 W/m 9,7 km/h (2 Bft) 97,87 %
16.07.2021 19:30 20,0 C 20,0 C 18,4 C 77 % 1023,1 hPa 0,0 l/m 2 min 0 min 205 W/m 16,1 km/h (3 Bft) 100,00 %
16.07.2021 19:32 20,0 C 20,0 C 18,9 C 77 % 1023,2 hPa 0,0 l/m 2 min 0 min 248 W/m 16,1 km/h (3 Bft) 97,87 %
16.07.2021 19:34 20,1 C 20,0 C 18,9 C 77 % 1023,1 hPa 0,0 l/m 2 min 0 min 176 W/m 9,7 km/h (2 Bft) 100,00 %
16.07.2021 19:36 20,1 C 20,0 C 18,9 C 77 % 1023,1 hPa 0,0 l/m 2 min 0 min 157 W/m 9,7 km/h (2 Bft) 97,83 %
16.07.2021 19:38 20,1 C 20,0 C 18,9 C 77 % 1023,1 hPa 0,0 l/m 2 min 0 min 148 W/m 9,7 km/h (2 Bft) 97,87 %
16.07.2021 19:40 20,1 C 20,0 C 18,4 C 77 % 1023,1 hPa 0,0 l/m 0 min 0 min 126 W/m 12,9 km/h (3 Bft) 97,87 %
16.07.2021 19:42 20,1 C 20,0 C 18,4 C 77 % 1023,1 hPa 0,0 l/m 0 min 0 min 106 W/m 6,4 km/h (2 Bft) 97,87 %
16.07.2021 19:44 20,1 C 20,0 C 18,4 C 77 % 1023,1 hPa 0,0 l/m 0 min 0 min 100 W/m 9,7 km/h (2 Bft) 97,87 %
16.07.2021 19:46 20,0 C 19,4 C 18,4 C 77 % 1023,2 hPa 0,0 l/m 0 min 0 min 98 W/m 6,4 km/h (2 Bft) 97,87 %
16.07.2021 19:48 20,0 C 19,4 C 18,4 C 78 % 1023,2 hPa 0,0 l/m 0 min 0 min 97 W/m 12,9 km/h (3 Bft) 97,83 %
16.07.2021 19:50 20,0 C 19,4 C 18,4 C 78 % 1023,2 hPa 0,0 l/m 0 min 0 min 93 W/m 9,7 km/h (2 Bft) 97,87 %
16.07.2021 19:52 20,0 C 19,4 C 17,8 C 78 % 1023,2 hPa 0,0 l/m 0 min 0 min 88 W/m 9,7 km/h (2 Bft) 97,87 %
16.07.2021 19:54 20,0 C 19,4 C 17,8 C 78 % 1023,2 hPa 0,0 l/m 0 min 0 min 84 W/m 3,2 km/h (1 Bft) 97,87 %
16.07.2021 19:56 19,9 C 19,4 C 17,8 C 78 % 1023,2 hPa 0,0 l/m 0 min 0 min 83 W/m 9,7 km/h (2 Bft) 95,74 %
16.07.2021 19:58 19,9 C 19,4 C 17,8 C 78 % 1023,3 hPa 0,0 l/m 0 min 0 min 83 W/m 6,4 km/h (2 Bft) 95,74 %
16.07.2021 20:00 19,9 C 19,4 C 17,8 C 79 % 1023,3 hPa 0,0 l/m 0 min 0 min 84 W/m 6,4 km/h (2 Bft) 95,65 %
16.07.2021 20:02 19,9 C 19,4 C 17,8 C 79 % 1023,3 hPa 0,0 l/m 0 min 0 min 87 W/m 6,4 km/h (2 Bft) 95,74 %
16.07.2021 20:04 19,9 C 19,4 C 17,8 C 79 % 1023,3 hPa 0,0 l/m 0 min 0 min 88 W/m 3,2 km/h (1 Bft) 95,74 %
16.07.2021 20:06 19,9 C 19,4 C 17,8 C 79 % 1023,3 hPa 0,0 l/m 0 min 0 min 84 W/m 6,4 km/h (2 Bft) 93,62 %
16.07.2021 20:08 19,9 C 19,4 C 17,8 C 79 % 1023,3 hPa 0,0 l/m 0 min 0 min 80 W/m 6,4 km/h (2 Bft) 95,74 %
16.07.2021 20:10 19,9 C 19,4 C 17,8 C 80 % 1023,3 hPa 0,0 l/m 0 min 0 min 74 W/m 6,4 km/h (2 Bft) 95,65 %
16.07.2021 20:12 19,9 C 19,4 C 17,8 C 80 % 1023,3 hPa 0,0 l/m 0 min 0 min 66 W/m 6,4 km/h (2 Bft) 95,74 %
16.07.2021 20:14 19,8 C 19,4 C 17,8 C 80 % 1023,3 hPa 0,0 l/m 0 min 0 min 60 W/m 3,2 km/h (1 Bft) 91,49 %
16.07.2021 20:16 19,8 C 18,9 C 17,8 C 80 % 1023,3 hPa 0,0 l/m 0 min 0 min 55 W/m 6,4 km/h (2 Bft) 93,62 %
16.07.2021 20:18 19,8 C 18,9 C 17,8 C 80 % 1023,3 hPa 0,0 l/m 0 min 0 min 51 W/m 3,2 km/h (1 Bft) 95,74 %
16.07.2021 20:20 19,8 C 18,9 C 17,8 C 80 % 1023,3 hPa 0,0 l/m 0 min 0 min 46 W/m 6,4 km/h (2 Bft) 95,74 %
16.07.2021 20:22 19,7 C 18,9 C 17,8 C 80 % 1023,3 hPa 0,0 l/m 0 min 0 min 41 W/m 6,4 km/h (2 Bft) 95,65 %
16.07.2021 20:24 19,6 C 18,9 C 17,8 C 80 % 1023,4 hPa 0,0 l/m 0 min 0 min 39 W/m 3,2 km/h (1 Bft) 93,62 %
16.07.2021 20:26 19,6 C 18,9 C 17,8 C 81 % 1023,4 hPa 0,0 l/m 0 min 0 min 37 W/m 6,4 km/h (2 Bft) 95,74 %
16.07.2021 20:28 19,6 C 18,9 C 17,8 C 81 % 1023,4 hPa 0,0 l/m 0 min 0 min 37 W/m 0,0 km/h (0 Bft) 91,49 %
16.07.2021 20:30 19,6 C 18,9 C 17,8 C 81 % 1023,4 hPa 0,0 l/m 0 min 0 min 38 W/m 0,0 km/h (0 Bft) 95,74 %
16.07.2021 20:32 19,6 C 18,9 C 17,8 C 81 % 1023,4 hPa 0,0 l/m 0 min 0 min 39 W/m 6,4 km/h (2 Bft) 93,62 %
16.07.2021 20:34 19,6 C 18,9 C 17,8 C 81 % 1023,4 hPa 0,0 l/m 0 min 0 min 40 W/m 3,2 km/h (1 Bft) 95,65 %
16.07.2021 20:36 19,6 C 18,9 C 17,8 C 82 % 1023,5 hPa 0,0 l/m 0 min 0 min 39 W/m 3,2 km/h (1 Bft) 95,74 %
16.07.2021 20:38 19,6 C 18,9 C 17,8 C 82 % 1023,5 hPa 0,0 l/m 0 min 0 min 36 W/m 3,2 km/h (1 Bft) 95,74 %
16.07.2021 20:40 19,6 C 18,9 C 17,8 C 82 % 1023,5 hPa 0,0 l/m 0 min 0 min 33 W/m 3,2 km/h (1 Bft) 97,87 %
16.07.2021 20:42 19,5 C 18,9 C 17,8 C 82 % 1023,5 hPa 0,0 l/m 0 min 0 min 31 W/m 6,4 km/h (2 Bft) 97,87 %
16.07.2021 20:44 19,5 C 18,9 C 17,8 C 82 % 1023,5 hPa 0,0 l/m 0 min 0 min 28 W/m 6,4 km/h (2 Bft) 97,87 %
16.07.2021 20:46 19,5 C 18,9 C 17,8 C 82 % 1023,5 hPa 0,0 l/m 0 min 0 min 28 W/m 6,4 km/h (2 Bft) 97,83 %
16.07.2021 20:48 19,5 C 18,9 C 17,8 C 82 % 1023,5 hPa 0,0 l/m 0 min 0 min 26 W/m 3,2 km/h (1 Bft) 97,87 %
16.07.2021 20:50 19,5 C 18,9 C 17,8 C 83 % 1023,6 hPa 0,0 l/m 0 min 0 min 26 W/m 3,2 km/h (1 Bft) 95,74 %
16.07.2021 20:52 19,5 C 18,9 C 17,8 C 83 % 1023,6 hPa 0,0 l/m 0 min 0 min 26 W/m 3,2 km/h (1 Bft) 100,00 %
16.07.2021 20:54 19,5 C 18,9 C 17,8 C 83 % 1023,6 hPa 0,0 l/m 0 min 0 min 24 W/m 3,2 km/h (1 Bft) 100,00 %
16.07.2021 20:56 19,5 C 18,9 C 17,8 C 83 % 1023,7 hPa 0,0 l/m 0 min 0 min 22 W/m 6,4 km/h (2 Bft) 97,87 %
16.07.2021 20:58 19,5 C 18,9 C 17,8 C 83 % 1023,6 hPa 0,0 l/m 0 min 0 min 21 W/m 3,2 km/h (1 Bft) 97,83 %
16.07.2021 21:00 19,5 C 18,9 C 17,8 C 83 % 1023,6 hPa 0,0 l/m 0 min 0 min 20 W/m 3,2 km/h (1 Bft) 100,00 %
16.07.2021 21:02 19,5 C 18,9 C 17,8 C 83 % 1023,6 hPa 0,0 l/m 0 min 0 min 19 W/m 3,2 km/h (1 Bft) 100,00 %
16.07.2021 21:04 19,4 C 18,9 C 17,8 C 83 % 1023,6 hPa 0,0 l/m 0 min 0 min 18 W/m 3,2 km/h (1 Bft) 97,87 %
16.07.2021 21:06 19,4 C 18,9 C 17,8 C 83 % 1023,7 hPa 0,0 l/m 0 min 0 min 16 W/m 3,2 km/h (1 Bft) 97,87 %
16.07.2021 21:08 19,4 C 18,9 C 17,8 C 84 % 1023,7 hPa 0,0 l/m 0 min 0 min 13 W/m 0,0 km/h (0 Bft) 97,83 %
16.07.2021 21:10 19,4 C 18,3 C 17,8 C 84 % 1023,7 hPa 0,0 l/m 0 min 0 min 12 W/m 0,0 km/h (0 Bft) 97,87 %
16.07.2021 21:12 19,4 C 18,3 C 17,8 C 84 % 1023,7 hPa 0,0 l/m 0 min 0 min 11 W/m 0,0 km/h (0 Bft) 97,87 %
16.07.2021 21:14 19,4 C 18,3 C 17,8 C 84 % 1023,7 hPa 0,0 l/m 0 min 0 min 10 W/m 0,0 km/h (0 Bft) 97,87 %
16.07.2021 21:16 19,4 C 18,3 C 17,8 C 84 % 1023,7 hPa 0,0 l/m 0 min 0 min 9 W/m 0,0 km/h (0 Bft) 97,87 %
16.07.2021 21:18 19,3 C 18,3 C 17,3 C 84 % 1023,8 hPa 0,0 l/m 0 min 0 min 7 W/m 0,0 km/h (0 Bft) 97,87 %
16.07.2021 21:20 19,3 C 18,3 C 17,3 C 85 % 1023,8 hPa 0,0 l/m 0 min 0 min 7 W/m 0,0 km/h (0 Bft) 95,74 %
16.07.2021 21:22 19,3 C 18,3 C 17,3 C 85 % 1023,8 hPa 0,0 l/m 0 min 0 min 7 W/m 0,0 km/h (0 Bft) 95,65 %
16.07.2021 21:24 19,3 C 18,3 C 17,3 C 85 % 1023,8 hPa 0,0 l/m 0 min 0 min 7 W/m 0,0 km/h (0 Bft) 97,87 %
16.07.2021 21:26 19,3 C 18,3 C 17,3 C 85 % 1023,9 hPa 0,0 l/m 0 min 0 min 7 W/m 0,0 km/h (0 Bft) 97,87 %
16.07.2021 21:28 19,2 C 18,3 C 17,3 C 85 % 1023,9 hPa 0,0 l/m 0 min 0 min 7 W/m 3,2 km/h (1 Bft) 97,87 %
16.07.2021 21:30 19,2 C 18,3 C 17,3 C 85 % 1023,9 hPa 0,0 l/m 0 min 0 min 7 W/m 0,0 km/h (0 Bft) 97,87 %
16.07.2021 21:32 19,1 C 18,3 C 17,3 C 84 % 1023,9 hPa 0,0 l/m 0 min 0 min 5 W/m 3,2 km/h (1 Bft) 97,87 %
16.07.2021 21:34 19,1 C 18,3 C 17,3 C 85 % 1023,9 hPa 0,0 l/m 0 min 0 min 5 W/m 3,2 km/h (1 Bft) 97,87 %
16.07.2021 21:36 19,1 C 18,3 C 17,3 C 85 % 1023,9 hPa 0,0 l/m 0 min 0 min 5 W/m 3,2 km/h (1 Bft) 95,74 %
16.07.2021 21:38 19,1 C 18,3 C 17,3 C 85 % 1023,9 hPa 0,0 l/m 0 min 0 min 0 W/m 0,0 km/h (0 Bft) 97,87 %
16.07.2021 21:40 19,2 C 18,3 C 17,3 C 85 % 1024,0 hPa 0,0 l/m 0 min 0 min 0 W/m 3,2 km/h (1 Bft) 97,87 %
16.07.2021 21:42 19,2 C 18,3 C 17,3 C 85 % 1024,0 hPa 0,0 l/m 0 min 0 min 0 W/m 0,0 km/h (0 Bft) 97,87 %
16.07.2021 21:44 19,2 C 18,3 C 17,3 C 85 % 1024,0 hPa 0,0 l/m 0 min 0 min 0 W/m 0,0 km/h (0 Bft) 97,83 %
16.07.2021 21:46 19,2 C 18,3 C 17,3 C 85 % 1024,0 hPa 0,0 l/m 0 min 0 min 0 W/m 3,2 km/h (1 Bft) 97,87 %
16.07.2021 21:48 19,2 C 18,3 C 17,3 C 85 % 1024,0 hPa 0,0 l/m 0 min 0 min 0 W/m 0,0 km/h (0 Bft) 97,87 %
16.07.2021 21:50 19,2 C 18,3 C 17,3 C 85 % 1024,0 hPa 0,0 l/m 0 min 0 min 0 W/m 0,0 km/h (0 Bft) 95,74 %
16.07.2021 21:52 19,2 C 18,3 C 17,3 C 85 % 1024,1 hPa 0,0 l/m 0 min 0 min 0 W/m 0,0 km/h (0 Bft) 97,87 %
16.07.2021 21:54 19,2 C 18,3 C 17,3 C 85 % 1024,1 hPa 0,0 l/m 0 min 0 min 0 W/m 0,0 km/h (0 Bft) 97,87 %
16.07.2021 21:56 19,2 C 18,3 C 17,3 C 85 % 1024,1 hPa 0,0 l/m 0 min 0 min 0 W/m 3,2 km/h (1 Bft) 100,00 %
16.07.2021 21:58 19,2 C 18,3 C 17,3 C 85 % 1024,2 hPa 0,0 l/m 0 min 0 min 0 W/m 0,0 km/h (0 Bft) 100,00 %
16.07.2021 22:00 19,2 C 18,3 C 17,3 C 85 % 1024,2 hPa 0,0 l/m 0 min 0 min 0 W/m 3,2 km/h (1 Bft) 100,00 %
16.07.2021 22:02 19,1 C 18,3 C 17,3 C 85 % 1024,2 hPa 0,0 l/m 0 min 0 min 0 W/m 3,2 km/h (1 Bft) 100,00 %
16.07.2021 22:04 19,1 C 18,3 C 17,3 C 85 % 1024,2 hPa 0,0 l/m 0 min 0 min 0 W/m 0,0 km/h (0 Bft) 100,00 %
16.07.2021 22:06 19,1 C 18,3 C 17,3 C 85 % 1024,3 hPa 0,0 l/m 0 min 0 min 0 W/m 3,2 km/h (1 Bft) 97,87 %
16.07.2021 22:08 19,1 C 18,3 C 17,3 C 86 % 1024,3 hPa 0,0 l/m 0 min 0 min 0 W/m 3,2 km/h (1 Bft) 100,00 %
16.07.2021 22:10 19,1 C 18,3 C 17,3 C 86 % 1024,3 hPa 0,0 l/m 0 min 0 min 0 W/m 3,2 km/h (1 Bft) 100,00 %
16.07.2021 22:12 19,1 C 18,3 C 17,3 C 86 % 1024,3 hPa 0,0 l/m 0 min 0 min 0 W/m 3,2 km/h (1 Bft) 97,87 %
16.07.2021 22:14 19,1 C 18,3 C 17,3 C 86 % 1024,3 hPa 0,0 l/m 0 min 0 min 0 W/m 0,0 km/h (0 Bft) 100,00 %
16.07.2021 22:16 19,1 C 18,3 C 17,3 C 86 % 1024,3 hPa 0,0 l/m 0 min 0 min 0 W/m 3,2 km/h (1 Bft) 100,00 %
16.07.2021 22:18 19,1 C 18,3 C 17,3 C 86 % 1024,4 hPa 0,0 l/m 0 min 0 min 0 W/m 3,2 km/h (1 Bft) 100,00 %
16.07.2021 22:20 19,1 C 18,3 C 17,3 C 86 % 1024,4 hPa 0,0 l/m 0 min 0 min 0 W/m 0,0 km/h (0 Bft) 100,00 %
16.07.2021 22:22 19,1 C 18,3 C 17,3 C 86 % 1024,3 hPa 0,0 l/m 0 min 0 min 0 W/m 0,0 km/h (0 Bft) 100,00 %
16.07.2021 22:24 19,1 C 18,3 C 17,3 C 86 % 1024,4 hPa 0,0 l/m 0 min 0 min 0 W/m 0,0 km/h (0 Bft) 100,00 %
16.07.2021 22:26 19,1 C 18,3 C 17,3 C 86 % 1024,3 hPa 0,0 l/m 0 min 0 min 0 W/m 0,0 km/h (0 Bft) 97,87 %
16.07.2021 22:28 19,1 C 18,3 C 17,3 C 87 % 1024,4 hPa 0,0 l/m 0 min 0 min 0 W/m 3,2 km/h (1 Bft) 97,87 %
16.07.2021 22:30 19,1 C 17,8 C 17,3 C 87 % 1024,4 hPa 0,0 l/m 0 min 0 min 0 W/m 0,0 km/h (0 Bft) 100,00 %
16.07.2021 22:32 19,1 C 18,3 C 17,3 C 87 % 1024,4 hPa 0,0 l/m 0 min 0 min 0 W/m 0,0 km/h (0 Bft) 97,83 %
16.07.2021 22:34 19,1 C 18,3 C 17,3 C 87 % 1024,4 hPa 0,0 l/m 0 min 0 min 0 W/m 0,0 km/h (0 Bft) 97,87 %
16.07.2021 22:36 19,1 C 18,3 C 17,3 C 87 % 1024,4 hPa 0,0 l/m 0 min 0 min 0 W/m 0,0 km/h (0 Bft) 100,00 %
16.07.2021 22:38 19,1 C 17,8 C 17,3 C 87 % 1024,4 hPa 0,0 l/m 0 min 0 min 0 W/m 0,0 km/h (0 Bft) 97,92 %
16.07.2021 22:40 19,1 C 17,8 C 17,3 C 87 % 1024,4 hPa 0,0 l/m 0 min 0 min 0 W/m 3,2 km/h (1 Bft) 97,87 %
16.07.2021 22:42 19,0 C 17,8 C 17,3 C 87 % 1024,5 hPa 0,0 l/m 0 min 0 min 0 W/m 3,2 km/h (1 Bft) 95,65 %
16.07.2021 22:44 19,0 C 17,8 C 17,3 C 87 % 1024,4 hPa 0,0 l/m 0 min 0 min 0 W/m 3,2 km/h (1 Bft) 97,87 %
16.07.2021 22:46 19,0 C 17,8 C 17,3 C 87 % 1024,5 hPa 0,0 l/m 0 min 0 min 0 W/m 0,0 km/h (0 Bft) 97,87 %
16.07.2021 22:48 19,0 C 17,8 C 17,3 C 87 % 1024,4 hPa 0,0 l/m 0 min 0 min 0 W/m 3,2 km/h (1 Bft) 95,74 %
16.07.2021 22:50 19,0 C 17,8 C 17,3 C 87 % 1024,5 hPa 0,0 l/m 0 min 0 min 0 W/m 3,2 km/h (1 Bft) 97,87 %
16.07.2021 22:52 19,0 C 17,8 C 17,3 C 87 % 1024,5 hPa 0,0 l/m 0 min 0 min 0 W/m 3,2 km/h (1 Bft) 97,87 %
16.07.2021 22:54 18,9 C 17,8 C 17,3 C 87 % 1024,5 hPa 0,0 l/m 0 min 0 min 0 W/m 3,2 km/h (1 Bft) 97,83 %
16.07.2021 22:56 18,9 C 17,8 C 17,3 C 87 % 1024,5 hPa 0,0 l/m 0 min 0 min 0 W/m 0,0 km/h (0 Bft) 97,87 %
16.07.2021 22:58 18,9 C 17,8 C 17,3 C 87 % 1024,5 hPa 0,0 l/m 0 min 0 min 0 W/m 3,2 km/h (1 Bft) 97,87 %
16.07.2021 23:00 18,9 C 17,8 C 17,3 C 87 % 1024,4 hPa 0,0 l/m 0 min 0 min 0 W/m 3,2 km/h (1 Bft) 95,74 %
16.07.2021 23:02 18,9 C 17,8 C 17,3 C 87 % 1024,5 hPa 0,0 l/m 0 min 0 min 0 W/m 3,2 km/h (1 Bft) 97,87 %
16.07.2021 23:04 18,9 C 17,8 C 17,3 C 87 % 1024,5 hPa 0,0 l/m 0 min 0 min 0 W/m 6,4 km/h (2 Bft) 97,87 %
16.07.2021 23:06 18,9 C 17,8 C 17,3 C 87 % 1024,4 hPa 0,0 l/m 0 min 0 min 0 W/m 6,4 km/h (2 Bft) 95,65 %
16.07.2021 23:08 18,8 C 17,8 C 17,3 C 87 % 1024,5 hPa 0,0 l/m 0 min 0 min 0 W/m 3,2 km/h (1 Bft) 97,87 %
16.07.2021 23:10 18,8 C 17,8 C 17,3 C 87 % 1024,4 hPa 0,0 l/m 0 min 0 min 0 W/m 3,2 km/h (1 Bft) 95,74 %
16.07.2021 23:12 18,8 C 17,8 C 17,3 C 87 % 1024,5 hPa 0,0 l/m 0 min 0 min 0 W/m 3,2 km/h (1 Bft) 97,87 %
16.07.2021 23:14 18,8 C 17,8 C 17,3 C 87 % 1024,5 hPa 0,0 l/m 0 min 0 min 0 W/m 3,2 km/h (1 Bft) 97,87 %
16.07.2021 23:16 18,8 C 17,8 C 17,3 C 87 % 1024,5 hPa 0,0 l/m 0 min 0 min 0 W/m 3,2 km/h (1 Bft) 97,87 %
16.07.2021 23:18 18,8 C 17,8 C 17,3 C 87 % 1024,6 hPa 0,0 l/m 0 min 0 min 0 W/m 6,4 km/h (2 Bft) 97,83 %
16.07.2021 23:20 18,8 C 17,8 C 17,3 C 87 % 1024,6 hPa 0,0 l/m 0 min 0 min 0 W/m 6,4 km/h (2 Bft) 97,87 %
16.07.2021 23:22 18,8 C 17,8 C 17,3 C 87 % 1024,6 hPa 0,0 l/m 0 min 0 min 0 W/m 6,4 km/h (2 Bft) 97,87 %
16.07.2021 23:24 18,7 C 17,8 C 17,3 C 87 % 1024,6 hPa 0,0 l/m 0 min 0 min 0 W/m 3,2 km/h (1 Bft) 97,87 %
16.07.2021 23:26 18,7 C 17,8 C 17,3 C 87 % 1024,6 hPa 0,0 l/m 0 min 0 min 0 W/m 3,2 km/h (1 Bft) 97,87 %
16.07.2021 23:28 18,6 C 17,8 C 17,3 C 87 % 1024,7 hPa 0,0 l/m 0 min 0 min 0 W/m 3,2 km/h (1 Bft) 100,00 %
16.07.2021 23:30 18,6 C 17,8 C 17,3 C 87 % 1024,6 hPa 0,0 l/m 0 min 0 min 0 W/m 3,2 km/h (1 Bft) 100,00 %
16.07.2021 23:32 18,6 C 17,8 C 17,3 C 87 % 1024,7 hPa 0,0 l/m 0 min 0 min 0 W/m 6,4 km/h (2 Bft) 100,00 %
16.07.2021 23:34 18,6 C 17,8 C 17,3 C 88 % 1024,7 hPa 0,0 l/m 0 min 0 min 0 W/m 6,4 km/h (2 Bft) 100,00 %
16.07.2021 23:36 18,6 C 17,8 C 17,3 C 88 % 1024,6 hPa 0,0 l/m 0 min 0 min 0 W/m 3,2 km/h (1 Bft) 100,00 %
16.07.2021 23:38 18,6 C 17,8 C 17,3 C 88 % 1024,6 hPa 0,0 l/m 0 min 0 min 0 W/m 6,4 km/h (2 Bft) 100,00 %
16.07.2021 23:40 18,6 C 17,8 C 17,3 C 88 % 1024,6 hPa 0,0 l/m 0 min 0 min 0 W/m 3,2 km/h (1 Bft) 100,00 %
16.07.2021 23:42 18,6 C 17,8 C 17,3 C 87 % 1024,7 hPa 0,0 l/m 0 min 0 min 0 W/m 6,4 km/h (2 Bft) 97,83 %
16.07.2021 23:44 18,6 C 17,8 C 17,3 C 88 % 1024,6 hPa 0,0 l/m 0 min 0 min 0 W/m 6,4 km/h (2 Bft) 97,87 %
16.07.2021 23:46 18,6 C 17,8 C 17,3 C 88 % 1024,6 hPa 0,0 l/m 0 min 0 min 0 W/m 6,4 km/h (2 Bft) 100,00 %
16.07.2021 23:48 18,6 C 17,8 C 17,3 C 88 % 1024,6 hPa 0,0 l/m 0 min 0 min 0 W/m 6,4 km/h (2 Bft) 100,00 %
16.07.2021 23:50 18,6 C 17,8 C 17,3 C 88 % 1024,6 hPa 0,0 l/m 0 min 0 min 0 W/m 6,4 km/h (2 Bft) 100,00 %
16.07.2021 23:52 18,6 C 17,8 C 17,3 C 88 % 1024,6 hPa 0,0 l/m 0 min 0 min 0 W/m 9,7 km/h (2 Bft) 100,00 %
16.07.2021 23:54 18,5 C 17,8 C 17,3 C 88 % 1024,6 hPa 0,0 l/m 0 min 0 min 0 W/m 9,7 km/h (2 Bft) 97,83 %
16.07.2021 23:56 18,5 C 17,8 C 17,3 C 88 % 1024,6 hPa 0,0 l/m 0 min 0 min 0 W/m 9,7 km/h (2 Bft) 100,00 %
16.07.2021 23:58 18,5 C 17,8 C 17,3 C 88 % 1024,5 hPa 0,0 l/m 0 min 0 min 0 W/m 6,4 km/h (2 Bft) 100,00 %
_ Min-Zeit 06:26 04:36 21:18 16:42 00:00 - - - - 20:28 07:44
Minimum _ 16,0 C 15,6 C 17,3 C 77 % 1018,3 hPa - - - - 0,0 km/h (0 Bft) 57,45 %
_ Max-Zeit 17:32 17:22 00:00 00:00 23:28 05:38 10:02 05:40 17:22 09:02 00:00
Maximum _ 20,4 C 23,9 C 21,7 C 97 % 1024,7 hPa 0,2 l/m 2 min 2 min 584 W/m 29,0 km/h
N (5 Bft)
100,00 %
Durchschnitt _ 18,1 C 17,9 C 19,5 C 88 % 1021,7 hPa #0,2 l/m #1:24 h #4 min. 185 W/m 12,0 km/h (2 Bft) 97,82 %
© 2021 W. Hausmann